GEFSSGP_con_probscp_024.txt.gz
Probability
0 0 0 0 0 0 0 0 0 0 0 0 0 0 0 0 0 0 0 0 0 0 0 0 0 0 0 0 0 0 0 0 0 0 0 0 0 0 0 0 0 0 0 0 0 0 0 0 0
0 0 0 0 0 0 0 0 0 0 0 0 0 0 0 0 0 0 0 0 0 0 0 0 0 0 0 0 0 0 0 0 0 0 0 0 0 0 0 0 0 0 0 0 0 0 0 0 0
0 0 0 0 0 0 0 0 0 0 0 0 0 0 0 0 0 0 0 0 0 0 0 0 0 0 0 0 0 0 0 0 0 0 0 0 0 0 0 0 0 0 0 0 0 0 0 0 0
0 0 0 0 0 0 0 0 0 0 0 0 0 0 0 0 0 0 0 0 0 0 0 0 0 0 0 0 0 0 0 0 0 0 0 0 0 0 0 0 0 0 0 0 0 0 0 0 0
0 0 0 0 0 0 0 0 0 0 0 0 0 0 0 0 0 0 0 0 0 0 0 0 1 0 0 0 0 0 0 0 0 0 0 0 0 0 0 0 0 0 0 0 0 0 0 0 0
0 0 0 0 0 0 0 0 0 0 0 0 0 0 0 0 0 0 0 0 0 0 0 1 2 3 3 2 1 1 0 0 0 0 0 0 0 0 0 0 0 0 0 0 0 0 0 0 0
0 0 0 0 0 0 0 0 0 0 0 0 0 0 0 0 0 0 0 0 0 0 0 1 3 5 7 7 6 5 3 2 1 1 0 0 0 0 0 0 0 0 0 0 0 0 0 0 0
0 0 0 0 0 0 0 0 0 0 0 0 0 0 0 0 0 0 0 0 0 0 0 0 2 5 8 12 16 17 14 12 9 6 3 2 1 0 0 0 0 0 0 0 0 0 0 0 0
0 0 0 0 0 0 0 0 0 0 0 0 0 0 0 0 0 0 0 0 0 0 0 0 1 4 9 16 25 32 33 30 26 18 12 8 5 2 1 0 0 0 0 0 0 0 0 0 0
0 0 0 0 0 0 0 0 0 0 0 0 0 0 0 0 0 0 0 0 0 0 0 0 1 4 11 21 32 42 48 48 44 37 29 23 15 10 7 5 3 1 0 1 1 1 1 1 2
0 0 0 0 0 0 0 0 0 0 0 0 0 1 1 1 0 0 0 0 0 0 0 0 2 5 13 25 36 44 52 54 52 50 48 45 39 33 29 26 21 14 9 6 7 8 7 7 8
0 0 0 0 0 0 0 0 0 0 1 1 1 3 5 4 1 0 0 0 1 1 1 1 4 7 14 25 32 37 45 49 49 51 58 67 69 64 59 56 51 43 34 26 22 20 16 15 16
0 0 0 0 0 0 0 0 0 1 4 6 6 7 10 7 3 1 2 6 10 11 6 5 9 15 22 28 26 26 31 37 41 44 56 74 84 82 77 74 71 68 66 58 48 38 29 25 23
0 0 0 0 0 0 0 0 1 5 12 18 19 19 19 15 9 6 10 21 31 30 22 16 19 28 35 35 27 19 18 25 33 38 48 66 80 83 78 74 74 78 82 79 69 57 46 38 34
0 0 0 0 0 0 0 1 5 14 28 37 39 39 38 34 26 21 26 41 52 53 45 36 37 43 44 37 28 20 18 26 36 43 49 61 76 81 78 75 78 83 85 83 78 70 61 52 48
0 0 0 0 0 0 1 4 12 27 44 54 58 59 60 58 51 45 49 60 68 69 65 61 60 58 48 37 31 30 33 42 52 57 59 65 76 83 82 83 86 89 90 87 83 77 69 61 59
0 0 0 0 0 0 2 7 18 35 54 65 70 72 76 77 73 68 68 71 72 71 70 67 65 58 47 37 33 34 38 47 54 55 54 58 68 76 81 85 88 91 92 89 85 81 75 68 64
0 0 0 0 0 1 3 7 14 29 50 65 73 79 84 87 85 78 70 63 57 54 52 49 44 39 34 30 25 22 23 27 30 29 29 35 43 52 62 71 77 81 83 83 81 78 77 73 69
0 0 0 0 0 1 2 3 6 14 30 48 64 79 88 91 84 69 55 44 35 29 26 25 22 19 19 18 14 10 7 7 8 8 9 12 17 23 32 44 55 61 66 71 73 73 73 75 76
0 0 0 0 0 0 1 1 1 3 12 27 52 77 87 83 69 51 36 26 18 12 10 11 10 10 11 12 11 8 4 3 3 2 2 2 3 5 11 20 29 37 46 56 62 65 69 73 77
0 0 0 0 0 0 0 0 0 1 7 25 50 69 72 60 45 31 20 14 9 5 5 7 7 7 9 12 13 11 6 3 2 1 1 0 0 1 3 6 10 16 25 35 44 53 61 66 69
0 0 0 0 0 0 0 0 0 1 9 25 41 47 41 30 20 12 7 5 4 4 5 5 5 6 8 11 14 12 7 3 1 0 0 0 0 0 1 1 2 5 9 14 23 36 49 57 59
0 0 0 0 0 0 0 0 0 1 6 13 19 19 14 9 5 3 1 1 2 3 4 4 4 4 5 6 7 7 4 2 1 0 0 0 0 0 0 0 0 1 2 4 9 20 35 47 51
0 0 0 0 0 0 0 0 0 0 1 2 3 3 2 1 1 0 0 0 0 1 2 2 2 1 1 2 2 1 1 1 0 0 0 0 0 0 0 0 0 0 0 0 3 9 22 33 39
0 0 0 0 0 0 0 0 0 0 0 0 0 0 0 0 0 0 0 0 0 0 0 1 1 0 0 0 0 0 0 0 0 0 0 0 0 0 0 0 0 0 0 0 1 4 10 18 22
0 0 0 0 0 0 0 0 0 0 0 0 0 0 0 0 0 0 0 0 0 0 0 0 0 0 0 0 0 0 0 0 0 0 0 0 0 0 0 0 0 0 0 0 0 1 3 5 7
0 0 0 0 0 0 0 0 0 0 0 0 0 0 0 0 0 0 0 0 0 0 0 0 0 0 0 0 0 0 0 0 0 0 0 0 0 0 0 0 0 0 0 0 0 0 0 0 1
0 0 0 0 0 0 0 0 0 0 0 0 0 0 0 0 0 0 0 0 0 0 0 0 0 0 0 0 0 0 0 0 0 0 0 0 0 0 0 0 0 0 0 0 0 0 0 0 0
0 0 0 0 0 0 0 0 0 0 0 0 0 0 0 0 0 0 0 0 0 0 0 0 0 0 0 0 0 0 0 0 0 0 0 0 0 0 0 0 0 0 0 0 0 0 0 0 0
0 0 0 0 0 0 0 0 0 0 0 0 0 0 0 0 0 0 0 0 0 0 0 0 0 0 0 0 0 0 0 0 0 0 0 0 0 0 0 0 0 0 0 0 0 0 0 0 0

GEFSSGP_con_probscp_030.txt.gz
Probability
0 0 0 0 0 0 0 0 0 0 0 0 0 0 0 0 0 0 0 0 0 0 0 0 0 0 0 0 0 0 0 0 0 0 0 0 0 0 0 0 0 0 0 0 0 0 0 0 0
0 0 0 0 0 0 0 0 0 0 0 0 0 0 0 0 0 0 0 0 0 0 0 0 0 0 0 0 0 0 0 0 0 0 0 0 0 0 0 0 0 0 0 0 0 0 0 0 0
0 0 0 0 0 0 0 0 0 0 0 0 0 0 0 0 0 0 0 0 0 0 0 0 0 0 0 0 0 0 0 0 0 0 0 0 0 0 0 0 0 0 0 0 0 0 0 0 0
0 0 0 0 0 0 0 0 0 0 0 0 0 0 0 0 0 0 0 0 0 0 0 0 0 0 0 0 0 0 0 0 0 0 0 0 0 0 0 0 0 0 0 0 0 0 0 0 0
0 0 0 0 0 0 0 0 0 0 0 0 0 0 0 0 0 0 0 0 0 0 0 0 0 0 0 0 0 0 0 0 0 0 0 0 0 0 0 0 0 0 0 0 0 0 0 0 0
0 0 0 0 0 0 0 0 0 0 0 0 0 0 0 0 0 0 0 0 0 0 0 0 0 0 0 0 0 0 0 0 0 0 0 0 0 0 0 0 0 0 0 0 0 0 0 0 1
0 0 0 0 0 0 0 0 0 0 0 0 0 0 0 0 0 0 0 0 0 0 0 0 0 0 0 0 0 0 0 0 0 0 0 0 0 0 0 0 0 0 0 0 0 0 0 0 1
0 0 0 0 0 0 0 0 0 0 0 0 0 0 0 0 0 0 0 0 0 0 0 0 0 0 0 0 1 1 1 1 0 0 1 1 0 1 2 4 7 6 2 0 0 1 1 1 1
0 0 0 0 0 0 0 0 0 0 0 0 0 0 0 0 0 0 0 0 0 0 0 0 0 0 0 1 2 2 2 2 1 0 1 2 1 1 4 13 24 20 8 2 2 3 3 2 1
0 0 0 0 0 0 0 0 0 0 0 0 0 0 1 2 2 1 0 0 0 0 0 0 0 1 1 2 3 3 4 5 3 1 2 4 4 2 4 19 37 34 17 10 10 11 8 6 6
0 0 0 0 0 0 0 0 0 0 0 0 0 1 3 4 4 3 1 0 0 0 0 0 2 5 7 8 8 7 9 10 9 7 9 16 21 18 17 28 41 41 34 30 31 29 19 14 16
0 0 0 0 0 0 0 0 0 0 0 0 3 7 10 8 6 4 2 1 0 0 0 1 5 13 21 22 22 19 16 15 17 21 25 35 45 42 39 47 49 49 55 58 57 51 39 32 33
0 0 0 0 0 0 0 0 0 0 0 2 10 18 18 12 8 8 7 5 3 1 2 7 15 28 41 47 45 37 29 23 24 30 36 44 53 51 48 55 59 59 68 75 74 69 62 58 56
0 0 0 0 0 0 0 0 0 0 2 9 23 33 31 23 18 17 17 14 8 6 12 22 32 45 59 65 62 50 38 30 28 31 35 38 43 44 44 49 56 62 71 79 81 80 79 78 75
0 0 0 0 0 0 0 1 2 3 8 21 39 52 55 47 35 27 23 19 16 19 31 42 49 58 67 67 61 49 36 27 26 27 28 28 31 36 40 43 48 59 70 78 84 86 87 87 85
0 0 0 0 0 0 0 3 8 11 17 32 52 66 73 68 51 35 29 27 29 37 52 60 61 63 65 62 53 40 26 21 19 18 15 15 19 24 30 33 39 50 62 73 82 88 91 92 91
0 0 0 0 0 0 0 4 14 22 28 40 56 68 76 73 61 50 46 48 53 59 66 71 67 61 56 51 42 28 17 13 10 6 4 6 9 11 12 16 23 31 44 57 70 82 90 94 93
0 0 0 0 0 0 1 4 13 25 34 43 54 65 74 77 74 69 67 71 76 77 76 70 61 51 43 36 27 17 9 6 3 1 1 2 3 2 2 4 7 12 21 34 49 65 78 85 87
0 0 0 0 0 0 1 2 6 15 27 39 49 60 73 81 83 81 81 83 86 85 76 60 47 38 32 26 19 12 6 3 1 0 0 1 1 0 0 0 1 3 8 17 29 44 55 62 68
0 0 0 0 0 0 1 1 1 4 15 30 43 57 73 84 87 86 84 82 80 76 63 47 36 29 26 24 20 15 9 4 1 0 0 0 0 0 1 1 1 1 4 8 17 28 32 37 45
0 0 0 0 0 0 0 0 0 1 8 22 38 55 72 83 87 83 77 71 64 57 47 38 33 29 28 28 25 20 15 8 3 1 1 1 1 0 1 1 1 1 2 4 10 15 18 24 31
0 0 0 0 0 0 0 0 0 1 6 19 35 50 65 77 80 72 64 57 50 41 34 30 31 34 36 39 39 31 19 9 5 4 4 3 2 0 0 0 0 0 1 3 4 5 9 17 22
0 0 0 0 0 0 0 0 1 2 6 15 29 41 53 62 63 57 51 48 43 34 24 23 32 42 48 55 60 52 34 20 14 11 8 5 2 1 0 0 0 0 0 1 1 2 5 10 13
0 0 0 0 0 0 0 0 1 2 3 9 19 30 37 39 39 37 35 35 34 29 22 24 36 51 60 68 75 72 59 46 35 25 15 7 4 2 1 0 0 0 0 0 1 2 3 5 7
0 0 0 0 0 0 0 0 0 0 1 3 9 15 17 16 16 16 16 18 20 21 23 30 43 58 68 75 80 81 78 69 54 36 21 12 7 3 1 0 0 0 0 0 1 2 4 5 5
0 0 0 0 0 0 0 0 0 0 0 0 2 3 3 3 3 3 4 7 10 14 20 30 45 57 64 71 77 82 84 77 64 49 34 22 15 9 5 2 1 0 0 0 1 3 5 4 3
0 0 0 0 0 0 0 0 1 1 1 0 0 0 0 0 0 0 1 3 5 8 12 21 33 42 46 51 59 67 73 74 69 64 54 42 33 25 15 8 3 1 0 1 2 4 4 3 2
0 0 0 0 0 0 0 1 3 3 2 0 0 0 0 0 0 0 0 0 1 2 4 9 13 18 21 26 32 40 51 58 61 63 63 59 53 43 30 18 9 4 1 1 2 2 2 1 1
0 0 0 0 0 0 0 1 2 2 1 0 0 0 0 0 0 0 0 0 0 0 0 1 2 4 7 9 13 20 28 34 39 45 51 57 58 50 40 28 16 7 2 0 0 0 0 0 1
0 0 0 0 0 0 0 1 1 1 0 0 0 0 0 0 0 0 0 0 0 0 0 0 0 1 2 3 5 10 16 20 25 30 37 47 52 47 40 31 19 9 3 1 0 0 0 0 0

GEFSSGP_con_probscp_036.txt.gz
Probability
0 0 0 0 0 1 1 1 0 0 0 0 0 0 0 0 0 0 0 0 0 0 0 0 0 0 0 0 0 0 0 0 0 0 0 0 0 0 0 0 0 0 0 0 0 0 0 0 0
0 0 0 0 0 0 0 0 0 0 0 0 0 0 0 0 0 0 0 0 0 0 0 0 0 0 0 0 0 0 0 0 0 0 0 0 0 0 0 0 0 0 0 0 0 0 0 0 0
0 0 0 0 0 0 0 0 0 0 0 0 0 0 0 0 0 0 0 0 0 0 0 0 0 0 0 0 0 0 0 0 0 0 0 0 0 0 0 0 0 0 0 0 0 0 0 0 0
0 0 0 0 0 0 0 0 0 0 0 0 0 0 0 0 0 0 0 0 0 0 0 0 0 0 0 0 0 0 0 0 0 0 0 0 0 0 0 0 0 0 0 0 0 0 0 0 0
0 0 0 0 0 0 0 0 0 0 0 0 0 0 0 0 0 0 0 0 0 0 0 0 0 0 0 0 0 0 0 0 0 0 0 0 0 0 0 0 0 0 0 0 0 0 0 0 0
0 0 0 0 0 0 0 0 0 0 0 0 0 0 0 0 0 0 0 0 0 1 1 0 0 0 0 0 0 0 0 0 0 0 0 0 0 0 0 0 0 0 0 0 0 0 0 0 1
0 0 0 0 0 0 0 0 0 0 0 0 0 0 0 0 0 0 0 0 2 4 3 1 0 0 0 0 0 0 1 1 1 1 1 1 1 1 2 3 4 4 3 3 3 2 1 2 4
0 0 0 0 0 0 0 0 0 0 0 0 0 0 0 0 0 0 0 0 3 8 7 3 1 1 0 1 1 3 4 5 5 4 3 3 2 5 13 20 21 18 16 16 18 16 14 14 15
0 0 0 0 0 0 0 0 0 0 0 1 2 2 0 0 0 0 0 0 3 9 9 7 10 10 4 6 12 12 11 12 11 11 15 16 10 9 23 40 46 46 45 48 51 48 41 36 33
0 0 0 0 0 0 0 0 0 0 2 6 10 7 2 0 0 0 0 3 7 10 8 14 31 32 16 21 35 27 24 32 28 26 40 47 31 15 22 46 66 73 75 79 81 77 67 56 48
0 0 0 0 0 0 0 0 0 1 5 15 20 14 6 4 3 3 6 16 23 17 9 23 54 58 36 43 58 47 46 61 59 53 69 78 62 35 29 50 76 86 89 90 90 87 79 66 56
0 0 0 0 0 0 0 0 0 3 8 18 23 17 12 11 10 13 24 44 49 33 21 39 72 77 62 63 71 67 70 82 84 83 88 94 86 64 53 66 82 86 87 87 87 85 80 69 59
0 0 0 0 0 0 0 0 1 4 11 16 17 16 16 18 20 30 52 73 76 57 44 61 86 91 84 79 79 79 84 90 95 96 97 97 94 83 74 79 86 82 78 80 82 81 79 73 66
0 0 0 0 0 0 0 0 1 5 10 13 13 14 17 21 30 49 73 89 92 81 72 81 95 98 96 91 87 83 84 90 94 96 95 93 92 86 77 75 77 74 70 72 75 77 78 77 74
0 0 0 0 0 0 0 0 0 3 7 9 10 12 18 25 37 57 78 90 94 92 90 93 98 100 99 96 90 82 80 86 89 87 87 86 83 74 60 53 55 59 59 61 64 68 73 74 73
0 0 0 0 0 0 0 0 0 1 3 4 5 9 21 35 45 61 79 88 92 95 97 98 99 100 100 98 90 80 80 84 78 69 70 72 63 49 36 29 31 36 37 38 42 50 60 64 64
0 0 0 0 0 0 0 0 0 0 1 2 3 10 29 50 63 73 85 92 94 96 97 97 97 97 97 95 87 79 78 74 59 50 55 53 38 25 18 15 15 16 15 15 20 30 40 46 49
0 0 0 0 0 0 0 0 0 0 1 2 7 20 43 65 77 84 90 93 93 94 94 93 92 91 91 88 81 75 69 56 39 38 46 37 18 10 8 6 4 4 4 4 7 12 18 24 29
0 0 0 0 0 0 0 0 0 1 3 7 18 37 59 75 80 85 87 86 85 86 86 85 84 84 84 81 75 71 64 46 31 34 41 28 9 3 2 1 0 0 0 1 2 3 5 8 12
0 0 0 0 0 0 0 0 0 4 11 21 35 56 73 79 79 79 77 73 71 71 72 73 74 75 76 74 70 68 63 47 35 40 43 29 12 5 3 2 1 1 0 0 0 1 2 2 2
0 0 0 0 0 0 0 0 3 10 24 39 54 69 78 80 77 71 65 59 55 55 58 61 65 66 68 69 67 67 63 52 48 54 55 43 25 14 9 6 3 2 1 0 1 3 5 3 1
0 0 0 0 0 0 0 1 7 20 38 52 62 70 74 74 70 63 54 45 40 43 50 57 63 67 70 70 70 72 68 60 61 67 68 58 43 30 24 18 12 7 3 1 2 4 5 5 2
0 0 0 0 0 0 0 1 8 24 42 55 60 62 63 59 53 49 41 32 28 33 44 56 65 72 76 77 79 80 75 69 70 74 75 70 61 53 47 42 35 24 13 7 5 4 4 5 4
0 0 0 0 0 1 0 1 7 21 38 50 53 52 48 40 33 29 25 21 21 26 35 47 58 66 72 76 81 84 82 78 77 78 79 80 79 75 71 69 64 51 34 22 14 8 5 5 7
0 0 0 0 1 2 1 2 8 22 35 42 42 37 30 22 15 13 12 12 15 18 22 30 41 50 55 60 67 75 77 79 80 81 82 86 89 88 87 86 81 69 52 37 25 14 8 8 10
0 0 0 0 0 1 2 8 18 27 30 29 24 19 13 8 4 3 4 6 7 8 9 15 24 32 36 39 48 57 61 63 69 75 80 85 88 91 93 93 88 77 61 46 34 23 14 12 13
0 0 0 0 0 0 3 13 26 28 21 14 9 7 5 3 0 0 1 1 2 2 2 5 11 16 18 21 27 34 37 41 47 55 62 70 76 82 87 90 90 84 71 57 44 31 21 16 14
0 0 0 0 0 0 2 12 29 32 20 9 4 4 3 1 0 0 0 0 0 0 0 1 3 4 5 7 10 13 17 21 25 30 36 45 54 63 71 78 83 84 79 69 56 39 25 18 14
0 0 0 0 0 0 1 13 32 36 21 8 3 2 2 1 0 0 0 0 0 0 0 0 0 0 1 1 2 3 5 7 9 12 16 22 28 36 47 59 69 73 75 73 62 43 28 19 14
0 0 0 0 0 0 2 16 34 33 17 6 1 1 1 0 0 0 0 0 0 0 0 0 0 0 0 0 1 2 3 2 2 4 7 9 12 17 29 45 58 63 67 71 64 45 29 19 14

GEFSSGP_con_probscp_042.txt.gz
Probability
0 0 0 0 0 0 0 0 0 0 0 0 0 0 0 0 0 0 0 0 0 0 0 0 1 1 1 1 1 1 0 0 0 0 0 1 2 3 3 3 3 3 3 3 2 1 0 0 0
0 0 0 0 0 0 0 0 0 0 0 0 0 0 0 0 0 0 0 0 0 0 0 1 2 3 3 2 2 2 1 1 1 1 0 1 3 3 3 3 2 2 2 2 1 0 0 0 0
0 0 0 0 0 0 0 0 0 0 0 0 0 0 0 0 0 0 0 0 0 0 1 3 6 6 4 3 3 3 3 2 2 2 2 2 3 3 3 1 1 1 1 1 0 0 0 0 0
0 0 0 0 0 0 0 0 0 0 0 0 0 0 0 0 0 0 0 0 0 0 2 8 11 10 6 4 3 3 3 3 3 3 3 3 3 3 3 1 1 1 1 1 1 1 1 1 1
0 0 0 0 0 0 0 0 0 0 0 0 0 0 0 0 1 0 0 0 0 1 4 11 17 15 10 6 5 5 5 4 4 3 3 3 3 3 3 3 2 2 2 2 2 2 2 2 2
0 0 0 0 0 0 0 0 0 0 0 0 0 0 0 1 2 1 0 0 0 1 5 13 21 21 16 12 10 8 7 6 5 3 3 3 3 3 3 3 3 3 3 3 3 3 3 3 3
0 0 0 0 0 0 0 0 1 1 1 0 0 0 0 0 1 0 0 0 0 1 7 16 23 24 21 17 14 11 8 6 5 4 3 3 3 3 3 3 3 3 3 3 3 4 3 3 3
0 0 0 0 0 0 0 0 1 1 1 0 0 0 0 0 0 0 1 1 1 1 8 19 25 25 22 19 14 10 7 5 4 3 3 3 3 3 3 3 3 3 3 4 4 5 4 4 4
0 0 0 0 0 0 0 0 0 1 1 1 1 1 1 0 1 3 6 9 9 6 9 19 28 27 23 18 12 7 4 3 3 3 3 3 3 3 3 3 3 4 5 6 7 7 7 6 6
0 0 0 0 0 0 0 0 1 1 1 1 2 3 4 3 4 10 18 27 30 22 14 17 27 30 24 17 10 5 4 3 3 3 3 3 3 3 3 3 4 4 6 8 10 10 11 11 11
0 0 0 0 0 0 0 0 1 2 1 2 5 8 10 8 10 18 32 46 54 46 27 19 24 28 24 16 10 7 5 4 3 3 3 3 3 4 4 3 4 5 6 9 12 14 16 17 16
0 0 0 0 0 0 0 0 1 1 1 5 12 16 15 14 14 21 36 56 69 65 44 29 26 28 23 16 13 11 7 5 4 3 4 5 6 7 6 5 5 5 6 8 10 13 15 16 16
0 0 0 0 0 0 0 0 0 2 7 16 23 22 18 15 18 25 40 59 72 71 55 40 37 34 27 21 19 18 13 10 9 9 9 13 14 13 9 7 6 6 6 7 7 8 9 10 11
0 0 0 0 0 0 0 0 1 6 19 31 32 26 19 18 27 40 49 57 63 60 50 45 45 41 33 29 29 29 28 28 27 24 23 26 26 19 11 7 5 5 5 5 5 4 4 6 7
0 0 0 0 0 0 0 0 1 9 26 37 35 28 24 29 43 52 51 50 49 44 40 40 40 39 36 35 37 40 46 48 46 40 36 34 29 19 9 4 2 3 3 2 2 2 2 3 4
0 0 0 0 0 0 0 0 1 10 27 38 38 37 39 46 54 53 46 41 38 35 33 32 30 31 34 37 40 46 52 53 47 40 34 30 23 13 5 1 0 1 1 0 0 0 1 1 1
0 0 0 0 0 0 0 1 3 13 29 43 48 52 58 60 58 53 45 37 31 26 24 22 19 22 29 35 38 41 42 37 31 26 21 16 12 6 1 0 0 0 0 0 0 0 0 0 0
0 0 0 0 0 0 1 3 8 18 34 49 60 67 70 66 57 51 44 33 24 19 15 12 10 14 22 29 29 27 22 16 13 12 9 6 4 2 0 0 0 0 0 0 0 0 0 0 0
0 0 0 0 0 0 2 7 14 25 38 51 63 71 71 62 50 41 33 24 17 12 10 7 8 10 15 19 18 12 8 6 4 4 3 1 0 0 0 0 0 0 0 0 0 0 0 0 0
0 0 0 0 0 0 2 8 17 26 35 47 59 64 60 50 37 27 19 14 10 6 4 5 6 8 10 11 9 5 2 2 2 3 3 1 0 0 0 0 0 0 0 0 0 0 0 0 0
0 0 0 0 0 0 1 5 12 21 29 39 48 47 40 31 22 14 10 8 5 2 1 2 3 4 5 6 6 4 2 1 1 2 2 2 1 1 0 0 0 0 0 0 0 0 0 0 0
0 0 0 0 0 0 0 1 6 14 22 27 30 28 22 15 10 6 5 4 2 0 0 0 0 1 2 3 5 6 6 5 4 3 2 2 2 2 1 1 0 0 0 0 0 0 0 0 0
0 0 0 0 0 0 0 0 3 9 14 16 17 13 8 5 3 2 1 1 0 0 0 0 0 0 0 2 4 6 7 7 7 6 4 4 4 3 3 2 1 1 1 0 0 0 0 0 0
0 0 0 0 0 0 0 0 1 4 7 9 10 6 2 1 0 0 0 0 0 1 0 0 0 0 0 1 2 4 5 6 7 6 6 6 4 3 3 3 2 2 1 1 1 1 0 0 0
0 0 0 0 0 0 0 0 0 1 3 4 4 3 1 0 0 0 0 0 0 0 0 0 0 0 0 0 0 1 3 3 4 4 4 3 2 2 2 2 1 1 1 2 2 1 0 0 0
0 0 0 0 0 0 0 0 0 1 2 3 2 1 1 0 0 0 0 0 0 0 0 0 0 0 0 0 0 0 1 1 1 1 1 1 1 1 0 0 0 1 1 1 1 1 0 0 0
0 0 0 0 0 0 0 0 0 1 2 3 2 1 0 0 0 0 0 0 0 0 0 0 0 0 0 0 0 0 0 0 0 0 0 0 0 0 0 0 1 1 0 0 0 0 0 0 0
0 0 0 0 0 0 0 0 0 0 1 2 1 0 0 0 0 0 0 0 0 0 0 0 0 0 0 0 0 0 0 0 0 0 0 0 0 0 0 0 0 0 0 0 0 0 0 0 0
0 0 0 0 0 0 0 0 0 0 0 0 0 0 0 0 0 0 0 0 0 0 0 0 0 0 0 0 0 0 0 0 0 0 0 0 0 0 0 0 0 0 0 0 0 0 0 0 0
0 0 0 0 0 0 0 0 0 0 0 0 0 0 0 0 0 0 0 0 0 0 0 0 0 0 0 0 0 0 0 0 0 0 0 0 0 0 0 0 0 0 0 0 0 0 0 0 0

GEFSSGP_con_probscp_048.txt.gz
Probability
0 0 0 0 0 0 0 0 0 0 0 0 0 0 0 0 0 0 0 0 0 1 2 2 1 0 0 0 0 0 0 0 0 0 0 0 0 0 0 0 0 0 0 0 0 0 0 0 0
0 0 0 0 0 0 0 0 0 0 0 0 0 0 0 0 0 0 0 0 1 2 2 2 2 2 1 0 0 0 0 0 0 0 0 0 0 0 0 0 0 0 0 0 0 0 0 0 0
0 0 0 0 0 0 0 0 0 0 0 0 0 0 0 0 0 0 0 0 1 2 2 4 8 7 4 3 3 3 2 1 0 0 0 0 0 0 0 0 0 0 0 0 0 0 0 0 0
0 0 0 0 0 0 0 0 0 0 0 0 0 0 0 0 0 0 0 0 1 2 3 9 18 19 13 9 8 8 7 6 4 2 1 1 0 0 0 0 0 0 0 0 0 0 0 0 0
0 0 0 0 0 0 0 0 0 0 0 0 0 0 0 0 0 0 0 0 2 5 9 19 33 36 29 21 18 15 13 10 8 6 4 2 1 0 0 0 0 0 0 0 0 0 0 0 0
0 0 0 0 0 0 0 0 0 0 0 0 0 0 0 0 0 0 0 1 5 14 22 33 47 50 43 36 31 28 22 17 12 8 5 3 2 0 0 0 0 0 0 0 0 0 0 0 0
0 0 0 0 0 0 0 0 0 0 0 0 0 0 0 0 0 0 1 4 12 26 40 50 57 59 53 47 44 39 31 23 15 9 6 4 2 1 1 0 0 0 0 0 0 0 0 0 0
0 0 0 0 0 0 0 0 0 0 0 0 0 0 0 0 0 1 3 8 17 32 50 63 68 67 62 55 50 44 36 25 16 11 8 5 3 2 2 1 0 0 0 0 0 0 0 0 0
0 0 0 0 0 0 0 0 0 0 0 0 0 0 2 5 5 6 8 15 25 36 50 62 67 67 64 58 52 47 39 30 22 16 11 6 4 2 2 2 1 0 0 0 0 0 0 0 0
0 0 0 0 0 0 0 0 0 0 0 0 0 3 10 17 19 18 19 26 36 44 48 51 55 58 60 57 54 49 42 35 29 22 16 11 8 5 4 3 2 1 1 0 0 0 0 0 1
0 0 0 0 0 0 0 0 0 0 0 0 3 11 25 36 39 38 36 39 45 48 47 45 45 49 51 49 47 44 39 34 31 28 24 22 18 13 8 5 4 3 2 2 1 0 1 2 3
0 0 0 0 0 0 0 0 0 1 1 2 8 24 43 55 57 56 54 51 48 47 46 43 39 40 39 35 33 33 32 31 31 31 32 33 31 23 14 9 7 6 5 4 2 1 1 2 3
0 0 0 0 0 0 0 0 1 2 4 8 18 38 57 67 66 62 59 56 52 48 44 39 35 32 30 26 24 25 26 28 30 32 34 37 35 28 19 13 10 9 7 5 2 2 2 2 2
0 0 0 0 0 0 1 3 4 6 11 21 33 49 64 70 67 58 50 47 48 46 40 35 32 28 25 23 21 21 21 22 25 28 31 32 32 29 22 14 9 7 6 4 3 2 2 2 2
0 0 0 0 0 0 4 10 13 15 24 38 49 58 65 66 61 50 38 34 36 37 35 31 27 24 21 18 17 15 14 17 21 24 26 29 28 25 18 10 5 3 2 3 3 2 1 1 1
0 0 0 0 0 1 6 15 20 24 34 49 57 59 60 57 49 38 29 24 23 24 24 23 20 17 15 13 11 10 10 14 18 20 22 25 24 18 10 5 1 0 0 1 1 1 0 0 0
0 0 0 0 1 3 8 15 18 21 30 40 46 48 49 45 36 27 20 15 12 12 13 12 10 9 8 8 7 8 9 11 13 13 14 16 15 9 5 2 1 0 0 0 0 0 0 0 0
0 0 0 0 1 3 7 10 10 11 15 19 24 29 33 32 25 18 14 11 8 7 7 5 4 2 3 4 6 8 9 9 8 7 6 6 6 4 3 2 1 0 0 0 0 0 0 0 0
0 0 0 0 0 1 3 5 5 5 5 6 10 15 20 21 18 14 12 10 7 6 5 4 2 0 0 2 4 6 6 5 3 3 2 2 2 3 3 2 1 0 0 0 0 0 0 0 0
0 0 0 0 0 0 1 4 4 3 3 4 6 8 11 13 12 9 7 5 4 3 3 3 2 0 0 0 1 2 2 1 1 1 1 1 2 3 2 1 0 0 0 0 0 0 0 0 0
0 0 0 0 0 0 1 2 3 2 2 2 2 3 4 5 5 3 1 1 1 1 1 1 1 0 0 0 0 0 0 0 0 0 0 0 1 2 1 0 0 0 0 0 0 1 0 0 0
0 0 0 0 0 0 0 0 1 2 2 1 1 1 1 1 1 0 0 0 0 0 0 0 0 0 0 0 0 0 0 0 0 0 0 0 0 0 0 0 0 0 0 0 0 0 0 0 0
0 0 0 0 0 0 0 0 1 2 2 1 0 1 0 0 0 0 0 0 0 0 0 0 0 0 0 0 0 0 0 0 0 0 0 0 0 0 0 0 0 0 0 0 0 0 0 0 0
0 0 0 0 0 0 0 0 0 1 1 1 0 0 0 0 0 0 0 0 0 0 0 0 0 0 0 0 0 0 0 0 0 0 0 0 0 0 0 0 0 0 0 0 0 0 0 0 0
0 0 0 0 0 0 0 0 0 0 0 0 0 0 0 0 0 0 0 0 0 0 0 0 0 0 0 0 0 0 0 0 0 0 0 0 0 0 0 0 0 0 0 0 0 0 0 0 0
0 0 0 0 0 0 0 0 0 0 0 0 0 0 0 0 0 0 0 0 0 0 0 0 0 0 0 0 0 0 0 0 0 0 0 0 0 0 0 0 0 0 0 0 0 0 0 0 0
0 0 0 0 0 0 0 0 0 0 0 0 0 0 0 0 0 0 0 0 0 0 0 0 0 0 0 0 0 0 0 0 0 0 0 0 0 0 0 0 0 0 0 0 0 0 0 0 0
0 0 0 0 0 0 0 0 0 0 0 0 0 0 0 0 0 0 0 0 0 0 0 0 0 0 0 0 0 0 0 0 0 0 0 0 0 0 0 0 0 0 0 0 0 0 0 0 0
0 0 0 0 0 0 0 0 0 0 0 0 0 0 0 0 0 0 0 0 0 0 0 0 0 0 0 0 0 0 0 0 0 0 0 0 0 0 0 0 0 0 0 0 0 0 0 0 0
0 0 0 0 0 0 0 0 0 0 0 0 0 0 0 0 0 0 0 0 0 0 0 0 0 0 0 0 0 0 0 0 0 0 0 0 0 0 0 0 0 0 0 0 0 0 0 0 0

GEFSSGP_con_probscp_054.txt.gz
Probability
0 0 0 0 0 0 0 0 0 0 0 0 0 0 0 0 0 0 0 0 0 1 2 3 1 0 0 0 0 0 1 2 3 2 2 2 1 0 0 0 0 0 0 0 0 0 0 0 0
0 0 0 0 0 0 0 0 0 0 0 0 0 0 0 0 0 0 0 0 0 1 2 3 2 0 0 0 0 0 1 3 4 5 5 5 3 2 0 0 0 0 0 0 0 0 0 0 0
0 0 0 0 0 0 0 0 0 0 0 0 0 0 0 0 0 0 0 0 0 1 3 3 1 0 0 0 0 1 2 4 6 7 7 6 4 3 1 0 0 0 0 0 0 0 0 0 0
0 0 0 0 0 0 0 0 0 0 0 0 0 0 0 0 0 0 0 0 0 2 3 2 1 0 0 0 0 1 2 4 6 7 7 4 2 1 0 0 0 0 0 0 0 0 0 0 0
0 0 0 0 0 0 0 0 0 0 0 0 0 0 1 1 1 0 0 0 0 1 2 2 1 0 0 1 1 1 3 6 8 8 6 4 2 0 0 0 0 0 0 0 0 0 0 0 0
0 0 0 0 0 0 0 0 0 0 0 0 0 0 1 1 1 0 0 0 0 0 1 2 1 1 1 2 3 4 6 8 11 11 9 7 5 4 3 2 1 0 0 0 0 0 0 0 0
0 0 0 0 0 0 0 0 0 0 0 0 0 0 0 1 1 1 1 0 0 0 1 1 2 2 4 6 9 11 12 13 14 14 13 12 11 10 9 7 4 1 0 0 0 0 0 0 0
0 0 0 0 0 0 0 0 0 0 0 0 0 1 5 10 11 9 8 5 3 2 2 4 5 6 6 10 17 20 19 19 19 20 21 20 16 14 14 15 14 10 4 1 0 0 0 0 0
0 0 0 0 0 0 0 0 0 0 0 0 0 4 17 31 33 30 27 22 16 13 12 13 14 14 12 15 22 25 26 27 27 29 33 32 24 19 23 29 36 29 15 6 2 2 2 2 2
0 0 0 0 0 0 0 0 0 0 0 0 2 8 25 44 53 53 50 44 39 36 32 28 27 27 23 22 25 26 31 37 35 36 43 45 40 35 36 49 58 48 29 16 8 4 4 5 4
0 0 0 0 0 0 0 1 2 3 3 2 5 13 26 40 55 64 65 64 63 59 52 45 44 45 43 40 35 32 38 45 44 44 51 56 57 55 55 63 68 59 45 33 25 17 12 9 9
0 0 0 0 0 0 1 1 4 7 7 7 10 18 26 34 45 59 69 75 78 74 66 60 61 65 64 58 51 46 45 47 49 52 58 61 66 67 67 72 74 69 63 56 48 38 26 19 16
0 0 0 0 0 1 2 3 6 11 15 19 23 31 38 41 47 57 68 76 82 82 76 72 74 76 73 65 59 54 49 46 48 53 57 60 65 68 71 78 80 75 72 70 64 54 42 31 25
0 0 0 0 0 1 2 4 8 17 28 38 45 52 59 62 65 69 72 75 79 82 82 78 75 74 69 62 57 52 47 42 42 46 49 52 58 64 70 76 78 76 73 73 68 58 47 37 30
0 0 0 0 0 0 1 5 12 24 39 51 59 67 73 77 79 80 79 78 79 81 83 78 70 66 64 58 53 47 41 35 34 36 39 42 47 54 61 66 70 72 71 70 65 55 44 35 27
0 0 0 0 0 0 1 6 14 23 35 48 56 63 69 72 74 75 77 79 80 81 81 76 68 64 60 55 50 43 34 29 26 27 30 33 36 42 47 52 57 61 63 60 53 44 34 27 23
0 0 0 0 0 0 2 5 10 15 23 32 40 45 49 51 53 56 61 65 68 71 73 72 68 62 54 47 43 36 29 24 21 21 24 27 27 29 33 38 43 47 50 48 39 31 24 20 19
0 0 0 0 0 0 2 4 7 10 14 18 21 23 25 27 27 31 36 40 44 51 57 60 60 55 46 38 34 29 24 21 19 17 17 19 19 18 21 28 33 34 38 36 28 21 17 14 13
0 0 0 0 0 0 1 4 8 11 12 11 11 12 13 14 13 15 21 25 28 35 40 42 42 40 35 31 27 24 21 20 17 14 11 11 10 10 14 21 25 25 26 26 20 16 14 11 9
0 0 0 0 0 0 1 3 7 11 10 8 7 8 9 11 12 14 17 18 19 22 26 26 25 24 24 22 18 16 16 14 11 10 8 7 6 6 8 12 15 17 19 19 17 14 12 8 7
0 0 0 0 0 0 1 2 4 5 5 4 4 4 6 7 10 11 12 10 9 11 15 15 14 14 15 13 10 9 9 6 5 5 6 5 4 4 5 6 7 10 13 16 16 13 10 9 7
0 0 0 0 0 0 0 1 2 2 2 3 3 3 3 3 4 5 3 2 2 4 6 8 9 11 11 10 9 9 7 5 3 3 3 4 4 4 4 3 3 5 7 11 12 10 11 11 8
0 0 0 0 0 0 0 0 1 3 4 4 3 2 1 1 1 1 0 1 1 1 2 4 7 10 11 11 12 11 9 7 4 2 2 2 2 3 2 1 1 2 4 6 9 11 13 13 10
0 0 0 0 0 0 0 1 2 4 4 3 3 2 1 0 0 0 0 2 2 2 1 3 6 10 12 12 13 12 10 7 4 1 0 1 1 1 1 1 1 1 2 4 8 13 15 14 12
0 0 0 0 0 0 0 2 4 5 3 2 2 2 1 0 0 0 0 1 2 1 0 1 4 7 9 10 11 12 10 7 5 3 2 1 1 1 2 2 2 1 2 3 8 12 15 16 14
0 0 0 0 0 0 0 2 4 3 1 1 1 1 0 0 0 0 0 0 1 1 0 0 1 3 4 6 9 10 10 7 6 6 4 2 1 1 2 2 2 2 2 2 5 8 12 14 13
0 0 0 0 0 0 0 1 2 1 0 0 0 0 0 0 0 0 0 0 0 0 1 0 1 2 2 3 4 5 6 6 6 6 4 2 2 2 1 1 1 2 2 1 1 3 6 9 9
0 0 0 0 0 0 0 0 0 0 0 0 0 0 0 0 0 0 0 0 0 0 0 0 1 2 2 1 1 1 1 2 3 3 2 2 3 2 1 0 0 1 1 0 0 1 3 5 5
0 0 0 0 0 0 0 0 0 0 0 0 0 0 0 0 0 0 0 0 0 0 0 0 0 1 1 0 0 0 0 0 1 1 1 2 3 2 1 0 0 0 0 0 0 0 1 1 2
0 0 0 0 0 0 0 0 0 0 0 0 0 0 0 0 0 0 0 0 0 0 0 0 0 0 0 0 0 0 0 1 1 1 1 2 4 2 1 0 0 0 0 0 0 0 0 0 0

GEFSSGP_con_probscp_060.txt.gz
Probability
0 0 0 0 2 3 2 0 0 0 0 0 0 0 0 0 0 0 1 19 38 28 8 3 3 3 3 3 3 1 0 0 0 0 0 0 0 0 0 0 0 0 0 0 0 0 0 0 0
0 0 0 0 1 1 1 0 0 0 0 0 0 0 0 0 0 0 3 19 34 23 7 4 3 3 3 3 3 2 1 0 0 0 0 0 0 0 0 0 0 0 0 0 0 0 0 0 0
0 0 0 0 1 0 0 0 0 0 0 0 0 0 0 0 0 0 4 20 30 19 7 5 4 3 3 3 3 2 1 0 0 1 1 1 1 0 0 0 0 0 0 0 0 0 0 0 0
0 0 0 0 0 0 0 0 0 0 0 0 1 2 2 1 0 0 6 20 26 19 11 8 5 4 3 3 3 1 0 0 1 1 2 3 2 1 0 0 1 1 0 0 0 0 0 0 0
0 0 0 0 0 0 0 0 0 0 0 0 3 6 4 1 0 0 5 16 22 23 19 12 7 5 4 4 3 2 2 1 1 2 3 4 4 3 1 2 3 3 1 1 1 0 0 0 0
0 0 0 0 0 0 0 0 0 0 0 0 4 8 6 2 0 0 3 9 23 35 32 18 11 9 7 6 5 5 4 3 3 4 5 5 6 6 4 6 9 10 8 6 4 2 0 1 1
0 0 0 0 0 0 0 0 0 0 0 0 3 7 7 3 1 0 0 6 28 51 45 26 17 14 9 6 6 6 6 6 6 6 6 6 7 8 10 14 19 21 21 18 13 7 5 7 7
0 0 0 0 0 0 0 0 0 0 0 2 4 6 6 3 1 0 0 6 30 57 54 32 22 18 9 6 9 10 9 9 9 9 9 9 9 11 18 26 31 34 37 34 27 21 19 19 18
0 0 0 0 0 0 0 0 0 2 4 8 10 8 5 3 1 1 1 7 29 55 56 39 33 25 11 10 18 20 17 16 15 16 20 19 13 14 28 41 52 56 56 55 51 45 40 34 28
0 0 0 0 0 0 0 0 1 5 10 14 16 12 5 2 3 4 5 12 31 51 55 52 54 44 26 28 38 32 29 34 29 30 41 40 25 20 33 58 76 80 77 76 76 71 61 46 34
0 0 0 0 0 0 0 2 5 10 14 16 17 16 9 5 7 11 15 26 42 52 54 63 75 71 55 57 61 47 45 57 52 49 62 64 52 40 45 69 89 91 89 87 87 85 75 54 37
0 0 0 0 0 0 1 4 10 15 19 22 26 28 24 20 22 27 35 50 62 63 59 70 87 90 81 79 78 66 64 72 71 69 75 78 77 68 67 78 88 89 89 87 84 84 79 63 48
0 0 0 0 0 0 2 5 11 19 28 36 44 50 50 48 50 54 63 75 82 80 74 80 92 96 92 89 87 82 79 79 79 80 80 83 86 85 83 85 86 84 83 82 79 78 76 69 63
0 0 0 0 0 0 2 4 11 23 35 44 56 68 75 78 78 81 86 91 94 92 88 89 93 93 91 89 90 89 87 86 84 83 83 83 86 86 84 84 81 77 76 75 73 70 66 62 61
0 0 0 0 0 0 2 7 16 27 37 47 59 72 85 91 93 93 94 96 97 96 95 94 94 93 91 90 90 91 91 89 88 86 84 83 82 80 78 77 74 69 68 68 65 60 52 46 43
0 0 0 0 0 0 3 12 21 26 33 46 55 64 75 85 90 92 93 96 97 97 97 97 95 95 95 94 92 91 90 88 87 86 84 81 77 72 71 70 66 62 61 58 53 46 38 33 29
0 0 0 1 0 0 4 15 23 23 29 40 48 52 58 68 75 78 81 84 87 91 93 94 95 95 95 95 92 87 84 82 81 84 83 77 69 65 64 63 61 57 52 47 38 31 28 26 24
0 0 1 2 1 0 6 18 23 22 26 34 38 39 41 46 51 52 54 58 63 71 79 85 87 90 91 90 86 83 80 76 75 77 76 67 58 56 56 58 59 53 44 35 27 23 22 20 19
0 0 1 3 2 1 8 20 24 23 24 26 26 25 24 24 27 28 28 31 36 46 58 66 71 75 78 79 78 77 75 69 65 65 62 53 44 41 43 47 50 45 34 26 21 19 16 11 9
0 0 1 2 2 2 8 17 22 22 20 17 15 14 11 10 12 14 15 16 20 28 36 45 52 58 61 63 65 67 66 60 56 57 53 41 32 27 27 34 37 33 28 23 20 16 12 7 4
0 0 1 1 1 2 6 13 20 19 13 9 7 7 6 5 5 6 7 9 12 17 24 34 45 50 50 51 53 56 56 51 50 53 48 35 24 18 17 21 25 25 26 25 22 17 12 8 5
0 0 0 0 0 1 3 9 15 15 9 6 4 3 3 3 3 3 4 6 8 12 21 37 49 53 52 52 52 52 49 45 43 44 42 33 21 13 11 12 15 18 21 22 21 19 16 10 7
0 0 0 0 0 0 1 5 9 10 10 9 6 3 1 2 3 4 5 8 9 12 22 39 56 62 61 59 57 53 49 44 39 35 35 30 23 15 10 8 8 9 11 12 15 18 17 12 9
0 0 0 0 0 0 0 2 4 6 9 10 7 4 2 1 2 3 4 9 13 17 23 37 52 59 58 56 54 51 48 43 34 27 24 23 20 17 12 9 8 6 4 5 9 12 12 11 9
0 0 0 1 0 0 0 2 4 5 6 6 4 3 3 1 1 3 5 9 15 20 24 30 38 43 42 41 40 40 37 30 23 18 15 13 12 13 12 11 9 6 3 2 4 5 6 7 7
0 0 0 0 0 0 1 4 6 4 2 1 1 1 1 1 2 4 6 9 11 14 16 19 24 27 27 25 25 26 23 17 13 11 9 7 6 8 10 12 11 9 7 6 5 4 4 5 5
0 0 0 0 0 0 2 5 6 3 0 0 0 0 0 0 1 2 3 5 4 4 5 8 12 15 16 14 13 15 15 10 7 6 5 5 7 8 9 10 11 12 13 12 10 5 3 3 2
0 0 0 0 0 0 1 3 4 1 0 0 0 0 0 0 0 0 1 1 1 0 0 2 4 6 6 5 4 6 7 7 6 4 4 6 9 9 8 7 7 11 15 15 11 6 3 2 1
0 0 0 0 0 0 0 1 2 1 0 0 0 0 0 0 0 0 0 0 0 0 0 0 2 3 2 2 2 2 3 4 5 5 6 8 9 8 7 4 4 6 10 11 9 5 3 1 0
0 0 0 0 0 0 0 0 1 0 0 0 0 0 0 0 0 0 0 0 0 0 0 0 0 1 1 1 2 3 2 2 4 5 6 7 7 7 6 4 2 2 4 6 6 4 2 0 0

GEFSSGP_con_probscp_066.txt.gz
Probability
0 0 0 0 0 0 0 0 0 0 0 0 0 1 1 1 1 1 2 3 3 3 3 5 9 9 6 4 3 2 1 0 0 0 0 0 0 0 0 0 0 0 0 0 0 0 0 0 0
0 0 0 0 0 0 0 0 0 0 0 0 1 2 2 2 2 2 3 3 3 3 3 5 9 9 6 3 3 2 1 0 0 0 0 0 0 0 0 0 0 0 0 0 0 0 0 0 0
0 0 0 0 0 0 0 0 0 0 1 1 1 3 3 3 3 3 3 3 3 3 3 6 9 8 5 4 4 5 4 2 0 0 0 0 0 0 0 0 0 0 0 0 0 0 0 0 0
0 0 0 0 0 0 0 0 0 1 2 2 2 3 3 5 8 8 6 3 3 4 5 8 11 10 8 7 7 6 5 2 0 0 0 0 0 0 0 0 0 0 0 0 0 0 0 0 0
0 0 0 0 0 0 1 1 2 5 4 3 3 4 4 8 15 15 8 4 4 6 7 10 14 14 12 12 9 6 5 4 3 2 1 0 1 1 0 0 0 0 0 0 0 0 0 0 0
0 0 0 0 0 0 0 1 3 7 7 4 4 5 5 10 18 17 9 4 3 5 7 9 12 14 15 14 11 8 7 7 7 5 2 1 1 1 1 0 0 0 0 1 1 1 0 0 1
0 0 0 0 0 0 0 1 3 6 8 9 8 7 5 9 16 18 13 7 4 4 5 6 8 11 13 14 12 10 9 9 9 7 4 2 1 2 2 1 1 1 1 2 3 2 0 1 2
0 0 0 0 0 0 0 1 2 7 11 14 13 9 6 10 21 29 26 18 9 5 4 6 8 10 11 11 11 11 11 10 9 7 4 3 3 3 3 4 6 6 6 7 8 7 4 4 4
0 0 0 0 0 0 0 1 4 11 16 18 17 14 11 18 35 47 44 34 22 9 4 5 8 10 9 8 8 9 11 11 10 7 5 6 6 5 4 5 8 11 13 15 16 16 15 14 14
0 0 0 0 0 0 1 2 7 16 22 21 20 21 22 30 47 58 58 49 36 19 8 4 5 6 7 8 9 10 10 12 11 9 7 8 9 7 4 3 6 11 16 21 26 30 31 29 28
0 0 0 0 1 1 4 9 15 22 27 27 29 33 35 40 49 58 62 57 47 33 20 13 11 11 11 16 20 17 15 16 16 13 12 12 12 10 7 5 8 14 21 29 38 46 48 45 43
0 0 0 1 2 5 11 20 28 33 37 43 49 53 53 51 52 58 63 62 56 49 40 34 32 28 26 30 34 30 26 28 27 22 19 18 17 16 14 12 14 21 33 43 51 56 58 55 51
0 0 0 1 4 11 21 33 42 47 54 63 69 71 69 65 62 63 66 67 66 64 62 60 58 52 47 45 44 42 42 45 44 37 30 28 26 24 20 18 19 26 38 47 52 54 53 51 49
0 0 0 0 4 14 29 42 51 58 67 77 79 77 76 73 69 68 71 73 74 74 75 76 74 69 63 59 55 54 55 59 60 54 45 41 38 34 28 24 23 28 33 38 41 40 36 35 36
0 0 0 0 2 12 29 44 51 57 68 78 79 76 74 72 71 72 73 75 76 76 76 76 74 69 66 64 63 63 63 64 64 58 52 49 47 42 34 26 25 26 27 28 28 26 23 22 22
0 0 0 1 2 8 23 37 42 47 57 65 67 67 65 63 64 65 63 63 65 64 63 65 64 59 57 57 58 59 57 54 51 46 44 47 47 40 29 20 18 19 19 18 17 16 16 15 14
0 0 0 1 3 8 18 28 33 37 43 46 46 47 47 47 46 46 45 46 47 46 44 46 48 46 45 45 45 44 40 35 31 30 32 36 36 29 19 12 10 12 11 9 8 9 10 10 10
0 0 0 2 5 11 19 25 28 29 29 27 25 26 28 29 27 25 28 31 31 29 27 28 31 32 32 32 32 29 24 20 19 19 20 22 20 16 11 7 6 6 5 4 3 4 6 6 6
0 0 0 2 6 13 20 22 21 17 15 13 12 13 15 15 13 12 14 16 17 16 15 15 17 19 19 21 21 19 17 15 14 11 9 8 8 7 5 4 2 2 2 1 1 1 3 3 3
0 0 0 1 4 8 13 16 13 9 7 7 7 6 6 6 6 5 5 6 7 7 7 8 9 11 11 12 11 11 12 11 8 5 2 1 2 2 2 1 0 0 0 0 0 0 1 1 1
0 0 0 0 1 3 6 8 8 5 4 4 4 2 1 1 2 1 1 2 3 4 6 7 8 8 8 7 5 5 6 5 4 3 1 0 0 0 0 0 0 0 0 0 0 0 0 0 0
0 0 0 0 0 0 1 2 3 2 1 2 2 1 0 0 0 1 1 2 2 2 5 8 8 7 6 4 3 2 2 3 2 2 1 0 0 0 0 0 0 0 0 0 0 0 0 0 0
0 0 0 0 0 0 0 0 0 0 0 0 0 0 0 0 0 1 2 2 1 2 4 6 7 5 4 2 1 1 1 1 1 1 1 0 0 0 0 0 0 0 0 0 0 0 0 0 0
0 0 0 0 0 0 0 0 0 0 0 0 0 0 0 0 1 1 1 1 2 2 3 3 3 3 3 3 2 1 0 0 0 0 0 0 0 0 0 0 0 0 0 0 0 0 0 0 0
0 0 0 0 0 0 0 0 0 0 0 0 0 0 0 0 1 0 0 0 1 1 2 2 1 2 3 3 2 1 0 0 0 0 0 0 0 0 0 0 0 0 0 0 0 0 0 0 0
0 0 0 0 0 0 0 0 0 0 0 0 0 0 0 0 0 0 0 0 0 0 1 1 0 1 2 1 1 0 0 0 0 0 0 0 0 0 0 0 0 0 0 0 0 0 0 0 0
0 0 0 0 0 0 0 0 0 0 0 0 0 0 0 0 0 0 0 0 0 0 0 0 0 0 0 0 0 0 0 0 0 0 0 0 0 0 0 0 0 0 0 0 0 0 0 0 0
0 0 0 0 0 0 0 0 0 0 0 0 0 0 0 0 0 0 0 0 0 0 0 0 0 0 0 0 0 0 0 0 0 0 0 0 0 0 0 0 0 0 0 0 0 0 0 0 0
0 0 0 0 0 0 0 0 0 0 0 0 0 0 0 0 0 0 0 0 0 0 0 0 0 0 0 0 0 0 0 0 0 0 0 0 0 0 0 0 0 0 0 0 0 0 0 0 0
0 0 0 0 0 0 0 0 0 0 0 0 0 0 0 0 0 0 0 0 0 0 0 0 0 0 0 0 0 0 0 0 0 0 0 0 0 0 0 0 0 0 0 0 0 0 0 0 0

GEFSSGP_con_probscp_072.txt.gz
Probability
0 0 0 0 0 0 0 0 0 0 0 0 0 0 0 0 0 0 1 2 5 6 5 4 4 5 6 6 6 7 6 4 2 1 0 1 1 1 0 0 0 0 0 0 0 0 0 0 0
0 0 0 0 0 0 0 0 0 0 0 0 0 0 0 0 0 0 1 2 5 6 6 4 4 5 6 6 7 8 7 3 1 0 0 0 0 0 0 0 0 0 0 0 0 0 0 0 0
0 0 0 0 0 0 0 0 0 0 0 0 0 0 0 0 0 0 1 4 8 9 6 4 4 5 6 7 8 10 7 4 1 1 0 0 0 0 0 0 0 0 0 0 0 0 0 0 0
0 0 0 0 0 0 0 0 0 0 0 0 0 0 0 0 0 1 3 7 12 11 7 5 6 6 8 9 11 11 8 5 3 2 1 1 1 0 0 0 0 0 0 0 0 0 0 0 0
0 0 0 0 0 0 0 0 0 0 0 0 0 0 1 1 1 2 4 9 14 12 7 6 8 10 10 11 12 10 8 6 4 3 3 2 2 1 1 0 0 0 0 0 0 0 0 0 0
0 0 0 0 0 0 0 0 0 0 0 0 1 2 4 3 3 3 4 9 14 13 9 8 11 12 12 12 12 10 8 7 6 4 3 3 2 2 1 1 0 0 0 0 0 0 0 0 0
0 0 0 0 0 0 0 0 0 1 1 1 2 4 5 4 4 4 5 8 13 13 11 11 13 13 12 12 13 12 10 9 7 5 4 3 1 1 1 1 0 0 0 0 0 0 0 0 0
0 0 0 0 0 0 0 0 1 2 3 2 3 5 7 8 8 7 8 9 11 11 12 15 17 16 15 13 13 14 15 13 10 8 6 4 1 0 0 0 0 0 0 0 0 0 0 0 0
0 0 0 0 0 0 0 0 1 3 5 6 7 11 16 17 13 11 11 11 12 13 15 19 23 23 19 16 16 19 21 20 16 12 10 6 2 1 2 2 1 1 0 0 0 1 1 1 1
0 0 0 0 0 0 0 1 3 6 8 10 13 22 29 24 16 14 13 12 14 16 16 20 25 26 24 22 23 25 27 26 22 17 15 11 7 5 6 7 6 4 3 3 3 3 3 3 4
0 0 0 0 0 0 2 5 10 15 16 18 24 33 35 27 18 15 14 13 14 15 16 19 23 25 23 24 26 29 32 31 26 23 20 17 15 13 13 14 13 9 9 10 11 10 9 9 9
0 0 1 1 3 5 8 15 24 30 31 34 40 44 42 33 25 21 21 20 18 18 18 19 21 21 21 21 22 25 29 31 29 25 24 24 23 21 20 21 18 14 14 15 17 18 17 16 16
0 1 2 4 8 13 19 27 36 43 46 49 55 55 50 44 37 33 33 31 28 24 21 19 19 20 20 19 18 18 20 24 25 24 24 26 26 24 23 23 20 16 15 15 16 18 21 21 21
0 1 2 6 9 17 28 36 40 44 48 54 58 58 54 50 47 45 43 40 35 28 22 18 17 18 20 20 17 13 13 16 18 18 19 21 22 21 20 19 18 16 14 12 12 14 18 20 19
0 0 1 4 7 14 28 37 36 38 44 50 52 51 48 45 45 44 39 35 33 30 24 19 16 16 17 19 16 12 10 12 13 11 11 12 14 15 14 13 13 12 10 10 11 12 13 13 13
0 0 0 2 4 10 20 27 25 30 42 48 46 44 41 37 35 31 25 22 23 25 23 20 17 14 13 14 14 11 9 9 8 6 5 5 6 8 9 9 8 7 6 7 9 9 8 7 6
0 0 0 0 2 7 13 16 15 23 35 41 40 37 34 30 24 18 15 14 14 16 18 16 14 10 9 9 10 9 7 6 6 5 4 2 2 4 6 6 5 4 4 3 4 5 4 3 2
0 0 0 0 1 6 10 10 10 14 22 27 27 26 24 19 13 9 10 10 9 9 10 9 7 6 6 6 6 6 5 4 4 4 3 2 2 3 4 4 3 3 2 1 2 2 1 1 0
0 0 0 0 2 5 7 7 7 8 12 14 14 13 13 10 6 4 6 6 5 5 5 4 3 3 3 4 4 3 2 2 2 1 1 2 2 1 1 1 1 1 1 0 0 0 0 0 0
0 0 0 0 2 4 5 5 5 5 6 7 5 4 5 5 3 2 3 2 2 2 1 1 1 1 1 1 1 1 0 0 0 0 0 1 1 0 0 0 0 0 0 0 0 0 0 0 0
0 0 0 0 1 2 3 3 3 2 2 2 1 1 1 1 1 0 0 0 1 1 0 0 0 0 0 0 0 0 0 0 0 0 0 0 0 0 0 0 0 0 0 0 0 0 0 0 0
0 0 0 0 0 1 1 1 1 0 0 0 0 0 0 0 0 0 0 0 0 0 0 0 0 0 0 0 0 0 0 0 0 0 0 0 0 0 0 0 0 0 0 0 0 0 0 0 0
0 0 0 0 0 0 0 0 0 0 0 0 0 0 0 0 0 0 0 0 0 0 0 0 0 0 0 0 0 0 0 0 0 0 0 0 0 0 0 0 0 0 0 0 0 0 0 0 0
0 0 0 0 0 0 0 0 0 0 0 0 0 0 0 0 0 0 0 0 0 0 0 0 0 0 0 0 0 0 0 0 0 0 0 0 0 0 0 0 0 0 0 0 0 0 0 0 0
0 0 0 0 0 0 0 0 0 0 0 0 0 0 0 0 0 0 0 0 0 0 0 0 0 0 0 0 0 0 0 0 0 0 0 0 0 0 0 0 0 0 0 0 0 0 0 0 0
0 0 0 0 0 0 0 0 0 0 0 0 0 0 0 0 0 0 0 0 0 0 0 0 0 0 0 0 0 0 0 0 0 0 0 0 0 0 0 0 0 0 0 0 0 0 0 0 0
0 0 0 0 0 0 0 0 0 0 0 0 0 0 0 0 0 0 0 0 0 0 0 0 0 0 0 0 0 0 0 0 0 0 0 0 0 0 0 0 0 0 0 0 0 0 0 0 0
0 0 0 0 0 0 0 0 0 0 0 0 0 0 0 0 0 0 0 0 0 0 0 0 0 0 0 0 0 0 0 0 0 0 0 0 0 0 0 0 0 0 0 0 0 0 0 0 0
0 0 0 0 0 0 0 0 0 0 0 0 0 0 0 0 0 0 0 0 0 0 0 0 0 0 0 0 0 0 0 0 0 0 0 0 0 0 0 0 0 0 0 0 0 0 0 0 0
0 0 0 0 0 0 0 0 0 0 0 0 0 0 0 0 0 0 0 0 0 0 0 0 0 0 0 0 0 0 0 0 0 0 0 0 0 0 0 0 0 0 0 0 0 0 0 0 0

GEFSSGP_con_probscp_078.txt.gz
Probability
0 0 0 0 0 0 0 0 0 0 0 0 0 0 0 0 0 0 0 0 0 1 2 1 0 0 0 1 2 4 4 3 1 1 1 1 1 0 0 0 0 0 0 0 0 0 0 0 0
0 0 0 0 0 0 0 0 0 0 0 0 0 0 0 0 0 0 0 0 0 1 2 1 1 0 0 1 2 4 5 4 2 3 3 3 2 1 0 0 0 0 0 0 0 0 0 0 0
0 0 0 0 0 0 0 0 0 0 0 0 0 0 1 1 1 0 0 0 0 1 2 3 2 1 0 0 1 4 6 5 4 5 5 4 2 1 0 0 0 0 0 0 0 0 0 0 0
0 0 0 0 0 0 0 0 0 0 0 0 0 2 3 3 1 1 1 1 1 1 3 4 3 1 0 0 1 3 5 6 6 5 5 4 2 0 0 0 0 0 0 0 0 0 0 0 0
0 0 0 0 0 0 0 0 0 0 1 1 2 4 6 5 3 3 3 2 1 1 3 6 5 3 1 1 1 3 5 6 6 6 5 4 2 1 0 0 0 0 0 0 0 0 0 0 0
0 0 0 0 0 0 0 0 0 0 1 2 2 5 8 8 7 6 4 3 2 2 4 8 7 4 3 2 1 4 7 8 7 5 4 3 2 1 0 0 0 0 0 0 0 0 0 0 0
0 0 0 0 0 0 0 0 0 1 2 2 3 6 9 10 9 8 6 5 3 3 4 7 7 4 2 1 3 7 10 10 7 5 3 1 1 0 0 0 0 0 0 0 0 0 0 0 0
0 0 0 0 0 0 0 0 1 3 3 3 6 10 15 16 14 11 10 8 6 4 4 6 7 6 3 3 5 9 12 12 11 8 5 3 2 1 1 2 2 2 1 0 0 0 0 0 0
0 0 0 0 0 0 0 0 1 4 6 11 16 24 31 30 21 15 13 12 11 9 7 7 9 10 8 7 8 9 10 13 14 11 9 9 8 5 5 8 9 6 3 2 1 0 0 0 0
0 0 0 0 0 0 0 1 1 5 13 22 30 39 46 40 26 15 12 13 15 14 12 11 12 12 10 10 10 9 9 12 13 12 13 15 17 16 16 20 21 15 8 7 6 5 4 3 2
0 0 0 0 0 0 0 1 4 12 23 32 37 44 47 41 26 17 15 16 18 16 14 12 12 10 9 11 12 12 14 17 18 17 18 21 25 27 29 34 34 27 19 17 16 14 11 9 8
0 0 0 0 0 0 0 3 10 24 35 39 42 44 43 38 30 24 24 24 21 16 12 11 11 10 11 14 14 15 19 25 28 27 25 26 30 32 36 41 40 34 29 26 25 22 19 15 13
0 0 0 0 0 1 1 5 18 34 43 47 48 45 42 39 36 33 31 29 25 19 13 12 13 15 19 22 21 18 22 28 32 33 31 29 31 34 38 41 38 33 31 30 30 28 24 19 17
0 0 0 0 0 1 3 9 25 39 47 51 50 47 45 43 40 36 34 33 30 24 20 18 17 20 26 30 27 23 23 26 28 29 28 26 26 29 34 35 32 28 27 28 30 29 26 22 20
0 0 0 0 1 1 3 13 28 40 45 49 50 49 49 47 41 36 37 38 35 29 27 26 22 21 24 27 25 21 19 18 22 25 23 19 18 19 23 24 21 22 22 24 25 24 23 21 18
0 0 0 0 1 2 3 11 23 32 38 42 44 45 45 43 40 38 39 41 39 35 32 29 23 17 16 15 14 12 10 13 19 23 22 18 15 13 13 14 14 16 20 20 19 17 17 16 13
0 0 0 0 1 2 3 7 15 22 29 33 35 36 36 38 39 38 38 40 39 36 31 25 19 15 12 9 7 6 7 11 16 18 18 16 13 11 10 11 11 12 16 18 16 15 15 14 12
0 0 0 0 0 1 2 4 9 16 20 24 28 30 32 35 36 33 30 31 32 28 23 18 16 14 12 8 8 9 11 11 12 11 10 9 7 6 8 9 7 8 12 15 15 15 14 13 12
0 0 0 0 0 0 0 2 7 12 14 17 21 27 29 29 28 24 19 19 21 19 15 13 13 12 10 9 10 12 13 11 8 6 5 4 3 3 4 6 5 6 10 13 14 14 13 11 10
0 0 0 0 0 0 0 2 5 9 11 12 15 20 22 20 17 14 11 10 11 12 11 10 10 9 8 8 10 12 12 9 5 4 5 4 2 2 2 4 5 6 8 9 10 11 9 7 6
0 0 0 0 0 0 0 1 3 6 9 9 10 12 13 11 9 8 6 4 4 6 7 7 7 7 7 8 9 10 9 6 3 4 6 5 3 3 3 4 4 5 6 6 6 6 5 5 5
0 0 0 0 0 0 0 0 1 3 4 5 5 6 6 6 5 5 3 1 1 3 5 6 7 7 9 11 11 10 7 4 4 5 6 6 4 3 3 3 3 4 4 4 4 3 3 5 7
0 0 0 0 0 0 0 0 0 0 1 1 1 3 3 3 2 1 1 0 1 3 5 6 8 10 14 16 16 14 7 3 4 6 6 6 4 2 2 2 2 2 3 3 3 3 3 5 6
0 0 0 0 0 0 0 0 0 0 0 0 1 1 1 1 0 0 0 0 1 2 3 4 8 12 14 15 16 14 8 3 3 4 4 3 2 1 1 1 1 1 1 1 2 2 2 3 4
0 0 0 0 0 0 0 0 0 0 0 0 0 0 0 0 0 0 0 0 0 1 1 1 4 7 7 7 8 7 5 3 2 2 1 1 0 0 0 0 0 0 0 0 1 1 1 2 2
0 0 0 0 0 0 0 0 0 0 0 0 0 0 0 0 0 0 0 0 0 0 0 0 1 2 2 2 3 3 2 2 1 1 0 0 0 0 0 0 0 0 0 0 0 0 0 1 1
0 0 0 0 0 0 0 0 0 0 0 0 0 0 0 0 0 0 0 0 0 0 1 1 1 1 1 2 2 2 2 2 1 0 0 0 0 0 0 0 0 0 0 0 0 0 0 0 0
0 0 0 0 0 0 0 0 0 0 0 0 0 0 0 0 0 0 0 0 0 0 1 2 2 2 2 1 1 1 1 1 1 0 0 0 0 0 0 0 0 0 0 0 0 0 0 0 0
0 0 0 0 0 0 0 0 0 0 0 0 0 0 0 0 0 0 0 0 0 0 1 1 1 2 1 0 0 0 0 0 0 0 0 0 0 0 0 0 0 0 0 0 0 0 0 0 0
0 0 0 0 0 0 0 0 0 0 0 0 0 0 0 0 0 0 0 0 0 0 0 0 0 1 1 0 0 0 0 0 0 0 0 0 0 0 0 0 0 0 0 0 0 0 0 0 0

GEFSSGP_con_probscp_084.txt.gz
Probability
0 0 0 0 0 1 1 1 0 0 0 0 1 1 1 1 2 2 3 12 20 16 7 3 2 1 1 0 0 0 0 0 0 0 0 0 0 0 0 0 0 0 0 0 0 0 0 0 0
0 0 0 0 1 1 1 0 0 0 0 1 2 2 1 1 1 2 4 13 19 14 7 4 3 1 0 0 0 0 0 0 0 0 0 0 0 0 0 0 0 0 0 0 0 0 0 0 0
0 0 0 0 1 1 0 0 0 0 0 1 4 5 3 2 2 3 7 15 18 13 8 7 5 3 1 0 0 0 0 0 0 0 0 0 0 0 0 0 0 0 0 0 0 0 0 0 0
0 0 0 0 0 0 0 0 0 0 0 3 9 11 8 3 2 3 8 15 17 13 10 10 9 6 4 2 0 0 0 0 1 1 1 2 1 1 1 0 0 0 0 0 0 0 0 0 0
0 0 0 0 0 0 0 0 0 1 2 6 14 19 13 5 1 2 5 11 13 13 12 12 12 10 7 4 2 1 1 1 2 3 5 5 4 3 2 1 0 0 0 0 0 0 0 0 0
0 0 0 0 0 0 0 0 1 3 5 10 19 24 18 8 3 2 3 7 13 17 15 12 13 13 11 7 4 4 4 4 4 5 7 7 5 4 4 2 1 1 0 0 0 0 0 0 0
0 0 0 0 0 0 0 0 2 5 8 13 22 27 21 12 6 3 2 7 16 21 17 12 12 12 10 7 6 7 6 5 5 6 6 5 4 4 4 3 2 2 1 1 0 0 0 0 0
0 0 0 0 0 0 0 1 3 7 11 17 26 31 25 16 8 4 3 8 17 22 18 13 12 10 8 7 9 8 6 6 6 5 3 3 3 3 4 4 4 3 3 3 2 1 1 0 0
0 0 0 0 1 0 0 1 5 10 17 26 35 37 28 16 9 6 7 12 19 23 20 17 16 13 10 13 15 10 6 6 6 4 4 5 5 6 8 12 14 11 6 5 5 5 4 2 1
0 0 0 0 0 0 0 2 6 13 23 35 44 40 27 16 11 12 17 22 27 28 27 29 29 24 21 24 25 18 17 18 13 11 14 14 12 14 19 26 28 20 11 8 10 11 8 6 5
0 0 0 0 0 0 1 4 9 17 28 38 43 38 28 20 17 22 30 34 36 35 36 44 47 40 36 38 36 30 33 36 28 28 34 31 27 28 34 40 37 26 17 14 17 18 15 11 8
0 0 0 0 0 0 2 8 15 22 29 34 36 36 32 27 26 31 38 45 47 45 46 55 60 55 53 53 48 42 45 46 43 46 51 49 44 40 43 47 43 34 29 27 28 28 24 18 16
0 0 0 0 0 1 4 11 20 25 28 29 30 33 34 33 35 39 46 53 55 51 52 60 65 65 65 65 60 52 48 48 49 50 51 51 49 44 43 46 44 40 38 38 38 35 30 27 27
0 0 1 0 1 2 6 12 21 26 28 29 31 34 38 42 46 50 54 56 54 51 53 59 64 66 66 65 60 52 46 45 46 45 43 42 42 41 40 40 39 37 38 39 39 36 31 29 29
0 0 0 0 1 2 5 11 19 26 31 33 36 40 47 53 56 56 55 52 50 52 56 57 57 59 60 54 46 39 37 36 36 36 35 34 33 32 32 32 31 31 33 34 33 31 27 22 21
0 0 0 0 0 1 4 11 19 26 31 35 39 45 52 55 55 53 50 49 51 58 63 59 53 52 51 44 34 28 27 27 25 25 27 28 25 22 22 24 25 26 28 27 26 25 22 18 17
0 0 0 0 0 0 3 11 19 23 27 32 38 44 48 50 49 47 46 46 51 58 61 58 51 46 43 37 30 24 21 17 15 16 19 21 18 15 15 18 21 20 21 22 22 23 24 20 17
0 0 0 0 0 0 2 8 14 17 22 27 33 39 41 42 41 40 40 41 44 48 50 49 45 40 36 33 30 25 18 11 9 11 15 15 13 11 11 15 17 15 16 19 21 22 23 19 16
0 0 0 0 0 0 2 6 11 14 17 22 26 31 34 35 33 32 32 33 34 36 39 39 36 31 26 26 26 23 17 11 8 10 12 10 7 7 8 11 12 13 15 17 17 17 16 13 11
0 0 0 0 0 0 2 6 11 12 12 14 18 22 25 26 25 25 25 26 25 26 28 30 30 25 19 18 17 16 15 12 10 13 14 10 7 7 7 8 9 10 12 13 11 10 10 9 8
0 0 0 0 0 0 1 5 9 10 9 9 10 13 16 17 18 17 16 16 17 17 18 23 27 23 16 12 9 9 11 12 12 18 22 18 12 9 7 6 6 7 8 8 6 6 6 7 8
0 0 0 0 0 0 0 2 6 8 7 7 7 9 10 10 10 9 8 8 8 8 12 22 28 23 15 10 9 8 10 11 14 21 25 21 15 11 7 5 5 5 5 5 4 4 4 4 5
0 0 0 0 0 0 0 1 3 4 4 4 6 7 6 5 5 5 5 3 2 3 10 22 30 27 19 13 12 11 11 10 11 16 17 14 13 10 6 4 5 5 5 3 3 4 3 3 3
0 0 0 0 0 0 0 0 0 1 1 3 5 5 4 3 3 3 4 3 1 3 10 21 31 30 23 17 14 12 11 9 9 8 7 6 6 5 3 3 4 4 3 2 1 1 1 2 2
0 0 0 0 0 0 0 0 0 0 0 1 3 3 2 1 1 1 2 3 3 5 11 21 31 30 23 17 13 10 9 7 6 4 2 1 1 1 1 1 2 2 2 1 0 0 0 1 1
0 0 0 0 0 0 0 0 0 0 0 0 1 2 1 0 0 0 2 4 5 8 12 22 30 27 18 11 9 8 7 5 4 3 2 0 0 0 0 0 1 1 1 0 0 0 0 0 0
0 0 0 0 0 0 0 0 0 0 0 0 0 0 0 0 0 0 2 4 6 10 14 21 26 22 12 6 6 6 6 5 4 3 2 1 0 0 0 0 1 1 0 0 0 0 0 0 0
0 0 0 0 0 0 0 0 0 0 0 0 0 0 0 0 0 0 1 3 6 10 14 17 18 13 7 4 3 4 4 4 3 2 1 1 1 1 0 0 1 1 0 0 0 0 0 0 0
0 0 0 0 0 0 0 0 0 0 0 0 0 0 0 0 0 0 2 5 6 7 8 9 8 6 4 3 2 3 3 2 1 0 0 1 2 1 0 0 0 0 0 0 1 0 0 0 0
0 0 0 0 0 0 0 0 0 0 0 0 0 0 0 0 0 1 3 6 5 3 3 4 4 4 3 3 2 3 3 2 1 0 0 0 1 1 0 0 0 0 0 0 1 0 0 0 0

GEFSSGP_con_probscp_090.txt.gz
Probability
0 0 0 0 0 0 0 0 0 0 1 1 1 1 1 1 1 1 1 2 3 3 1 0 0 0 0 0 0 0 0 0 0 0 0 0 0 0 0 0 0 0 0 0 0 0 0 0 0
0 0 0 0 0 0 0 0 1 2 3 2 2 2 3 3 3 3 3 5 7 6 4 2 2 2 1 0 0 0 0 0 0 0 0 0 0 0 0 0 0 0 0 0 0 0 0 0 0
0 0 0 0 0 0 0 0 3 6 6 5 6 6 6 7 6 5 7 12 15 13 8 6 7 6 3 1 1 0 0 0 0 0 0 0 0 0 0 0 0 0 0 0 0 0 0 0 0
0 0 0 0 0 0 0 2 7 10 10 10 13 15 14 12 11 10 11 17 20 17 12 10 10 9 6 3 2 1 1 1 0 0 0 0 0 0 0 0 0 0 0 0 0 0 0 0 0
0 0 0 0 0 0 1 4 9 13 13 16 22 25 22 19 19 17 15 19 22 19 14 12 11 9 6 4 3 3 2 2 1 1 1 1 1 1 0 0 0 0 0 0 0 0 0 0 0
0 0 0 0 0 0 1 4 8 12 13 18 26 29 25 23 23 21 19 21 23 20 15 12 10 7 4 3 3 3 4 4 3 2 2 2 2 1 0 0 0 0 1 0 0 0 0 0 0
0 0 0 0 0 0 1 3 5 8 12 17 23 27 23 21 21 20 21 23 22 19 16 12 9 6 3 2 2 3 5 5 4 3 3 3 2 1 0 0 0 0 0 0 0 0 0 0 0
0 0 0 0 0 0 1 3 4 6 11 15 19 21 20 18 18 21 24 24 19 15 14 11 8 6 2 0 1 2 4 4 3 2 2 1 1 0 0 1 2 1 0 1 1 1 0 0 0
0 0 0 0 0 0 1 3 3 7 12 16 18 21 22 22 24 27 28 23 15 11 9 7 6 5 2 0 0 1 2 2 1 1 1 0 0 0 0 2 3 2 2 2 2 2 1 0 0
0 0 0 0 0 0 1 3 4 7 12 17 21 26 30 31 33 34 28 19 11 7 6 6 5 3 1 0 0 0 1 1 1 0 0 0 0 0 0 1 3 3 3 3 3 3 2 1 1
0 0 1 1 1 1 1 2 5 8 11 18 25 31 35 36 37 35 28 18 10 7 5 5 3 1 0 0 0 0 1 1 1 0 0 0 0 0 0 1 2 3 3 3 3 3 3 3 2
0 0 1 2 2 2 1 2 6 9 12 19 26 31 33 35 37 36 30 22 14 9 6 5 5 5 4 3 2 1 2 1 1 2 2 1 0 0 0 0 1 2 3 3 3 3 3 3 3
0 0 0 1 1 2 2 4 7 11 14 18 25 30 29 29 34 36 32 25 19 15 13 12 13 13 12 8 5 4 3 3 3 5 4 2 1 0 1 1 1 2 3 3 3 3 3 3 2
0 0 0 0 1 2 4 5 6 10 13 17 22 27 25 24 29 33 30 26 25 24 22 22 19 17 15 11 8 6 6 6 7 9 8 5 2 1 1 1 1 2 2 2 2 2 2 1 1
0 0 0 0 1 2 3 5 6 9 13 16 19 22 21 20 23 27 28 28 29 30 27 22 17 14 13 11 9 8 7 8 9 10 8 6 3 1 1 1 0 1 1 1 1 1 1 0 0
0 0 0 0 0 1 1 3 5 9 12 14 14 17 16 15 16 20 23 25 27 28 24 18 13 11 10 9 8 8 7 7 6 6 5 3 1 0 0 0 0 0 0 0 0 0 0 0 0
0 0 0 0 0 0 1 2 4 9 11 10 10 11 13 12 10 13 16 20 22 22 18 14 10 8 7 7 7 6 5 4 3 2 1 1 0 0 0 0 0 0 0 0 0 0 0 0 0
0 0 0 0 0 1 2 2 4 7 8 7 6 7 10 10 9 10 13 15 16 15 12 9 6 4 4 4 4 3 2 2 1 1 1 1 0 0 0 0 0 0 0 0 0 0 0 0 0
0 0 0 0 0 0 1 2 3 5 5 5 4 5 7 7 8 9 11 11 10 8 5 4 3 2 1 1 1 1 1 0 0 0 0 0 0 0 0 0 0 0 0 0 0 0 0 0 0
0 0 0 0 0 0 1 1 2 3 3 3 4 5 5 5 6 8 9 8 6 3 2 1 1 0 0 0 0 0 0 0 0 0 0 0 0 0 0 0 0 0 0 0 0 0 0 0 0
0 0 0 0 0 1 1 1 1 1 1 3 4 5 5 4 5 6 7 7 4 2 0 0 0 0 0 0 0 0 0 0 0 0 0 0 0 0 0 0 0 0 0 0 0 0 0 0 0
0 0 0 0 0 0 0 0 0 0 1 2 3 3 3 3 3 5 6 5 2 1 0 0 0 0 0 0 0 0 0 0 0 0 0 0 0 0 0 0 0 0 0 0 0 0 0 0 0
0 0 0 0 0 0 0 0 0 0 1 1 1 1 2 2 3 4 4 3 1 0 0 0 0 0 0 0 0 0 0 0 0 0 0 0 0 0 0 0 0 0 0 0 0 0 0 0 0
0 0 0 0 0 0 0 0 0 0 0 0 0 1 2 2 2 2 1 1 0 0 0 0 0 0 0 0 0 0 0 0 0 0 0 0 0 0 0 0 0 0 0 0 0 0 0 0 0
0 0 0 0 0 0 0 0 0 0 0 0 0 1 3 3 1 0 0 0 0 0 0 0 0 0 0 0 0 0 0 0 0 0 0 0 0 0 0 0 0 0 0 0 0 0 0 0 0
0 0 0 0 0 0 0 0 0 0 0 0 0 1 3 2 0 0 0 0 0 0 0 0 0 0 0 0 0 0 0 0 0 0 0 0 0 0 0 0 0 0 0 0 0 0 0 0 0
0 0 0 0 0 0 0 0 0 0 0 0 0 0 1 1 0 0 0 0 0 0 0 0 1 1 0 0 0 0 0 0 0 0 0 0 0 0 0 0 0 0 0 0 0 0 0 0 0
0 0 0 0 0 0 0 0 0 0 0 0 0 0 0 0 0 0 0 0 0 0 0 1 2 2 1 0 0 0 0 0 0 0 0 0 0 0 0 0 0 0 0 0 0 0 0 0 0
0 0 0 0 0 0 0 0 0 0 0 0 0 0 0 0 0 0 0 0 0 1 1 2 3 2 1 0 0 0 0 0 0 0 0 0 0 0 0 0 0 0 0 0 0 0 0 0 0
0 0 0 0 0 0 0 0 0 0 0 0 0 0 0 0 0 0 0 0 1 2 2 3 3 1 0 0 0 0 0 0 0 0 0 0 0 0 0 0 0 0 0 0 0 0 0 0 0

GEFSSGP_con_probscp_096.txt.gz
Probability
0 0 0 0 0 0 0 0 0 0 0 0 0 0 0 0 0 0 0 1 3 6 7 7 7 7 6 6 4 3 3 2 1 0 0 0 0 0 0 0 0 0 0 0 0 0 0 0 0
0 0 0 0 0 0 0 0 0 0 0 0 1 1 1 0 0 0 1 2 4 7 7 7 8 8 7 6 4 3 3 2 1 0 0 0 0 0 0 0 0 0 0 0 0 0 0 0 0
0 0 0 0 0 0 0 0 0 0 0 1 2 3 3 1 1 2 4 7 9 10 9 8 9 9 8 6 4 3 3 2 1 0 0 0 0 0 0 0 0 0 0 0 0 0 0 0 0
0 0 0 0 0 0 0 0 0 0 0 2 4 7 7 5 4 5 9 12 14 14 11 9 9 10 8 7 5 3 2 1 1 0 0 0 0 0 0 0 0 0 0 0 0 0 0 0 0
0 0 0 0 0 0 0 0 0 1 1 4 8 12 14 10 9 12 13 14 15 14 12 11 12 11 8 7 6 4 3 2 2 1 1 0 0 0 0 0 0 0 0 0 0 0 0 0 0
0 0 0 0 0 0 0 0 1 2 3 6 11 17 18 16 15 16 16 15 16 16 13 12 13 12 10 8 6 4 3 3 3 2 2 1 0 0 1 0 0 0 0 0 0 0 0 0 0
0 0 0 0 0 0 0 0 1 3 4 6 11 17 20 19 19 19 18 18 19 19 15 12 12 13 12 8 5 4 3 2 2 2 2 1 0 0 0 0 0 0 0 0 0 0 0 0 0
0 0 0 0 0 0 0 0 1 3 5 7 11 16 20 21 22 23 23 21 20 19 17 13 11 12 12 9 5 4 3 2 1 1 1 1 0 0 0 0 0 0 0 0 0 0 0 0 0
0 0 0 0 0 0 0 0 1 4 8 12 15 19 24 27 28 30 28 24 19 17 15 13 11 11 12 10 7 4 4 2 0 0 0 0 0 0 0 0 0 0 0 0 1 1 1 0 0
0 0 0 0 0 0 0 0 2 6 11 15 21 27 32 35 34 32 30 25 19 15 12 11 10 10 11 11 8 6 4 1 0 0 0 0 0 0 0 0 0 0 0 0 1 2 2 1 1
0 0 0 0 0 0 0 1 3 7 10 14 24 35 37 36 34 31 27 24 20 16 13 13 12 11 10 10 9 6 3 1 0 0 0 0 0 0 0 0 0 0 0 0 1 1 2 2 2
0 0 0 1 0 0 0 1 3 6 9 13 24 36 39 36 34 31 28 23 20 19 18 17 15 12 10 9 7 5 3 1 0 0 0 0 0 0 0 0 0 0 0 0 0 0 1 2 2
0 0 0 0 0 1 1 2 3 5 9 16 25 34 37 35 32 30 27 23 21 20 18 16 13 11 9 7 5 2 1 1 0 0 0 0 0 0 0 0 0 0 0 0 0 1 1 1 2
0 0 0 0 0 1 1 1 2 4 10 18 25 28 28 28 27 26 24 22 21 19 16 13 10 8 7 5 3 2 1 0 0 0 0 0 0 0 0 0 0 0 0 0 0 1 2 2 2
0 0 0 0 0 1 1 0 1 4 8 15 20 20 19 20 21 23 22 21 21 20 18 15 11 7 5 4 3 3 2 1 0 0 0 0 0 0 0 0 0 0 0 0 0 1 1 1 1
0 0 0 0 0 0 0 0 1 4 7 10 14 14 14 16 18 20 23 23 22 20 19 17 13 7 3 3 2 2 2 1 0 0 0 0 0 0 0 0 0 0 0 0 0 0 0 0 0
0 0 0 0 0 0 0 0 2 5 6 6 8 10 11 13 14 17 21 22 20 18 16 14 11 6 3 1 1 1 1 1 0 0 0 0 0 0 0 0 0 0 0 0 0 0 0 0 0
0 0 0 0 0 0 0 1 3 5 5 4 4 5 6 9 11 13 15 16 15 14 13 10 6 3 1 0 0 0 0 0 0 0 0 0 0 0 0 0 0 0 0 0 0 0 0 0 0
0 0 0 0 0 0 1 2 3 3 3 2 2 2 2 5 8 9 9 9 10 11 10 6 2 1 0 0 0 0 0 0 0 0 0 0 0 0 0 0 0 0 0 0 0 0 0 0 0
0 0 0 0 0 0 1 2 2 1 1 1 1 0 1 2 4 5 5 5 5 6 5 3 1 0 0 0 0 0 0 0 0 0 0 0 0 0 0 0 0 0 0 0 0 0 0 0 0
0 0 0 0 0 0 0 1 1 0 0 0 0 0 0 1 1 1 1 1 2 2 1 1 1 0 0 0 0 0 0 0 0 0 0 0 0 0 0 0 0 0 0 0 0 0 0 0 0
0 0 0 0 0 0 0 0 0 0 0 0 0 0 0 0 0 0 0 0 1 2 2 1 1 0 0 0 0 0 0 0 0 0 0 0 0 0 0 0 0 0 0 0 0 0 0 0 0
0 0 0 0 0 0 0 0 0 0 0 0 0 0 0 0 0 0 0 0 1 2 3 2 1 0 0 0 0 0 0 0 0 0 0 0 0 0 0 0 0 0 0 0 0 0 0 0 0
0 0 0 0 0 0 0 0 0 0 0 0 0 0 0 0 0 0 0 0 1 2 3 2 1 0 0 0 0 0 0 0 0 0 0 0 0 0 0 0 0 0 0 0 0 0 0 0 0
0 0 0 0 0 0 0 0 0 0 0 0 0 0 0 0 0 0 0 0 1 1 1 1 0 0 0 0 0 0 0 0 0 0 0 0 0 0 0 0 0 0 0 0 0 0 0 0 0
0 0 0 0 0 0 0 0 0 0 0 0 0 0 0 0 0 0 0 0 0 0 0 0 0 0 0 0 0 0 0 0 0 0 0 0 0 0 0 0 0 0 0 0 0 0 0 0 0
0 0 0 0 0 0 0 0 0 0 0 0 0 0 0 0 0 0 0 0 0 0 0 0 0 0 0 0 0 0 0 0 0 0 0 0 0 0 0 0 0 0 0 0 0 0 0 0 0
0 0 0 0 0 0 0 0 0 0 0 0 0 0 0 0 0 0 0 0 0 0 0 0 0 0 0 0 0 0 0 0 0 0 0 0 0 0 0 0 0 0 0 0 0 0 0 0 0
0 0 0 0 0 0 0 0 0 0 0 0 0 0 0 0 0 0 0 0 0 0 0 0 0 0 0 0 0 0 0 0 0 0 0 0 0 0 0 0 0 0 0 0 0 0 0 0 0
0 0 0 0 0 0 0 0 0 0 0 0 0 0 0 0 0 0 0 0 0 0 0 0 0 0 0 0 0 0 0 0 0 0 0 0 0 0 0 0 0 0 0 0 0 0 0 0 0

GEFSSGP_con_probscp_102.txt.gz
Probability
0 0 0 0 0 0 0 0 0 0 0 0 0 0 0 0 0 0 0 0 1 2 2 3 5 6 6 4 2 2 1 1 0 0 0 0 0 0 0 0 0 0 0 0 0 0 0 0 0
0 0 0 0 0 0 0 0 0 0 0 0 0 0 0 0 0 0 1 1 1 2 4 5 6 6 4 3 2 2 2 2 1 0 0 0 0 0 0 0 0 0 0 0 0 0 0 0 0
0 0 0 0 0 0 0 0 0 0 0 0 0 1 2 2 2 1 2 2 2 4 6 7 5 3 2 2 3 3 4 4 3 1 0 0 0 0 0 0 0 0 0 0 0 0 0 0 0
0 0 0 0 0 0 0 0 0 0 0 0 1 3 6 8 6 5 4 4 5 6 8 8 5 3 2 3 5 6 6 6 5 3 1 0 0 0 0 0 0 0 0 0 0 0 0 0 0
0 0 0 0 0 0 0 0 0 0 0 0 1 5 10 13 12 10 7 7 7 7 8 8 7 4 3 4 6 7 8 8 7 3 1 0 0 0 0 0 0 0 0 0 0 0 0 0 0
0 0 0 0 0 0 0 0 0 1 2 1 2 7 15 18 17 13 9 7 6 6 7 9 7 4 3 5 7 8 8 7 5 2 1 1 0 0 0 0 0 0 0 0 0 0 0 0 0
0 0 0 0 0 0 0 0 1 2 3 3 4 11 20 25 23 17 11 6 4 4 6 7 6 4 3 5 7 7 7 4 2 1 0 0 0 0 0 0 0 0 0 0 0 0 0 0 0
0 0 0 0 0 0 0 0 1 3 5 5 7 14 24 31 31 25 16 9 4 3 3 4 4 4 4 5 5 4 4 2 1 0 0 0 0 0 0 0 0 0 1 1 1 0 0 0 0
0 0 0 0 0 0 0 0 1 3 5 7 12 19 26 33 36 32 23 15 9 5 3 2 3 3 4 4 2 1 1 1 0 0 0 0 0 1 1 1 0 0 1 2 1 0 0 0 0
0 0 0 0 0 0 0 0 0 1 3 8 16 23 28 34 36 33 26 20 17 11 5 3 4 5 4 3 2 1 1 0 1 1 1 1 1 2 2 1 0 0 1 1 1 0 0 0 0
0 0 0 0 0 0 0 0 0 1 3 8 17 26 31 35 36 32 26 23 20 15 9 6 7 8 7 5 3 2 2 1 1 2 2 1 1 3 3 2 1 0 0 0 0 0 0 0 0
0 0 0 0 0 0 0 0 0 1 4 8 15 24 29 31 33 32 28 26 23 17 12 10 9 11 12 9 6 4 2 1 1 2 2 1 1 3 3 2 2 1 0 0 0 1 1 0 0
0 0 0 0 0 0 0 0 1 2 5 8 12 19 24 26 29 31 31 30 26 21 17 15 14 15 15 14 10 6 4 2 1 1 1 0 1 2 2 2 2 2 1 0 0 0 1 1 1
0 0 0 0 0 0 0 0 1 4 6 7 10 16 21 24 28 30 32 33 29 25 22 20 20 19 18 16 13 11 8 6 3 1 1 1 2 2 2 2 2 2 1 1 1 0 1 2 2
0 0 0 0 0 0 0 1 3 6 7 7 10 16 21 25 29 32 34 34 31 27 26 25 24 22 19 17 16 14 12 9 6 3 3 3 3 4 4 3 2 1 2 2 2 0 0 1 1
0 0 0 0 0 0 0 2 5 7 8 9 11 16 20 23 27 32 35 35 32 29 29 27 24 22 21 20 18 16 12 9 7 6 4 4 4 4 4 3 2 1 1 1 1 0 0 0 0
0 0 0 0 0 0 0 2 4 5 7 8 10 13 16 16 20 26 31 34 33 31 29 26 24 23 24 23 20 16 12 8 6 5 4 3 3 4 4 3 2 0 0 0 0 0 0 0 0
0 0 0 0 0 0 0 1 2 3 4 4 5 7 8 9 12 19 26 30 33 32 29 26 25 24 25 23 19 16 13 8 5 4 3 3 3 3 3 2 1 0 0 0 0 0 0 0 0
0 0 0 0 0 0 0 1 2 2 2 1 1 2 3 5 10 14 19 24 27 29 28 26 24 22 22 21 17 15 12 8 5 4 3 3 3 3 2 1 1 0 0 0 0 0 0 0 0
0 0 0 0 0 0 0 1 2 2 1 1 1 1 1 3 9 13 16 18 20 24 24 23 21 19 17 17 15 13 11 8 6 4 4 3 3 3 2 1 1 0 0 0 0 0 0 0 0
0 0 0 0 0 0 0 2 3 2 1 1 2 2 2 3 7 12 13 13 16 19 21 19 18 16 14 14 12 10 8 7 5 4 4 4 3 3 2 1 0 0 0 0 0 0 0 0 0
0 0 0 0 0 0 0 1 3 3 1 1 2 2 2 1 4 9 10 10 12 15 18 19 19 17 15 12 10 8 6 4 4 3 4 3 3 3 1 0 0 0 0 0 0 0 0 0 0
0 0 0 0 0 0 0 0 1 1 1 1 1 1 1 0 2 5 7 7 7 10 16 20 20 19 15 11 8 6 4 3 3 3 3 3 3 2 1 0 0 0 0 0 0 0 0 0 0
0 0 0 0 0 0 0 0 0 0 0 0 0 0 0 0 2 3 4 4 5 7 12 16 19 18 14 10 6 4 3 3 3 3 3 3 2 1 0 0 0 0 0 0 0 0 0 0 0
0 0 0 0 0 0 0 0 0 0 0 0 0 0 0 1 3 4 4 5 7 8 10 13 16 15 12 8 4 2 2 3 3 3 3 3 2 1 0 0 0 0 0 0 0 0 0 0 0
0 0 0 0 0 0 0 0 0 0 0 0 0 0 0 1 3 4 5 6 8 8 9 12 14 13 10 6 2 1 2 3 3 3 3 3 2 1 0 0 0 0 0 0 0 0 0 0 0
0 0 0 0 0 0 0 0 0 0 0 0 0 0 0 0 1 2 4 5 6 8 9 11 13 12 9 3 1 1 2 2 3 3 3 2 2 1 0 0 0 0 0 0 0 0 0 0 0
0 0 0 0 0 0 0 0 0 0 0 0 0 0 0 0 0 1 2 3 5 8 10 11 12 12 8 4 1 1 2 3 4 3 3 2 1 0 0 0 0 0 0 0 0 0 0 0 0
0 0 0 0 0 0 0 0 0 0 1 0 0 0 0 0 0 0 1 2 5 8 11 13 14 13 9 5 4 4 5 5 5 4 3 3 2 1 0 0 0 0 0 0 0 0 0 0 0
0 0 0 0 0 0 0 0 0 0 1 0 0 0 0 0 0 0 1 2 4 8 12 15 16 14 9 6 6 7 8 8 7 5 4 3 3 2 1 0 0 0 0 0 0 0 0 0 0

GEFSSGP_con_probscp_108.txt.gz
Probability
0 0 0 0 1 1 1 0 0 0 0 0 0 1 3 4 5 7 9 18 27 22 12 8 8 7 4 2 1 0 0 0 0 0 0 0 0 0 0 0 0 0 0 0 0 0 0 0 0
0 0 0 0 0 0 0 0 0 0 0 0 1 2 4 5 5 7 13 23 28 21 12 11 10 7 4 3 1 0 0 0 0 0 0 0 0 0 0 0 0 0 0 0 0 0 0 0 0
0 0 0 0 0 0 0 0 0 0 0 1 3 5 7 6 6 8 16 27 31 24 18 17 14 9 6 3 1 0 0 0 0 0 0 0 0 0 0 0 0 0 0 0 0 0 0 0 0
0 0 0 0 0 0 0 0 0 0 0 1 6 12 12 8 9 12 18 29 35 29 24 22 20 14 8 4 1 0 0 0 0 0 0 0 0 0 0 0 0 0 0 0 0 0 0 0 0
0 0 0 0 0 0 0 0 0 0 1 2 9 18 20 16 17 19 22 31 37 32 26 24 23 19 12 7 3 1 0 0 0 0 0 0 0 0 0 0 0 0 0 0 0 0 0 0 0
0 0 0 0 0 0 0 0 0 1 2 3 9 20 26 25 24 24 26 33 37 34 28 24 23 20 14 9 6 3 1 0 0 0 0 0 0 0 0 0 0 0 0 0 0 0 0 0 0
0 0 0 0 0 0 0 0 0 2 4 5 9 19 28 30 27 26 28 34 39 38 31 23 19 16 13 9 6 4 3 1 1 0 0 0 0 0 0 0 0 0 0 0 0 0 0 0 0
0 0 0 0 0 0 0 0 0 2 4 7 13 23 30 31 28 28 30 33 39 39 30 22 17 13 10 7 5 4 4 3 2 1 0 0 0 0 0 0 0 0 0 0 0 0 0 0 0
0 0 0 0 0 0 0 0 0 2 5 12 22 31 34 31 31 34 35 38 42 40 31 23 18 12 8 5 4 4 4 4 3 2 1 1 1 1 1 1 1 1 0 0 0 0 0 0 0
0 0 0 0 0 0 0 0 0 2 7 18 33 41 39 35 36 39 41 47 51 45 34 29 25 17 10 7 5 3 3 4 4 3 2 3 4 3 2 2 2 1 0 0 0 0 0 0 0
0 0 0 0 0 0 0 0 0 3 9 22 38 45 43 40 40 39 43 51 56 50 40 38 36 29 21 16 11 5 4 4 5 5 5 6 6 5 4 4 2 1 1 1 1 1 0 0 1
0 0 0 0 0 0 0 0 2 6 14 26 37 43 42 41 41 40 42 49 56 53 46 46 49 44 39 32 22 13 9 7 8 10 9 8 7 6 6 6 5 3 2 2 2 2 1 1 1
0 0 0 0 0 0 0 1 5 11 20 28 33 37 39 39 39 40 41 49 56 56 53 55 57 57 53 44 32 23 18 15 15 15 13 11 9 7 5 6 6 4 3 3 2 1 1 1 1
0 0 0 0 0 0 1 3 10 17 23 26 29 32 35 38 38 39 43 50 58 59 59 61 62 61 56 45 35 28 24 21 20 19 17 14 11 8 5 5 5 5 5 4 2 0 0 0 0
0 0 0 0 0 0 1 5 13 21 23 23 25 28 33 38 38 40 46 52 58 61 61 61 61 59 51 40 33 29 25 22 22 22 20 16 12 8 6 5 6 6 6 4 1 1 1 0 0
0 0 0 0 0 0 1 6 16 22 22 22 24 27 32 36 37 39 44 52 57 59 58 56 56 56 49 39 34 31 27 24 23 22 19 14 9 7 6 6 6 5 4 2 1 1 1 0 0
0 0 0 0 0 0 1 6 17 23 22 22 25 28 31 33 35 34 37 46 52 54 54 51 50 51 47 40 35 32 30 28 25 20 15 9 6 5 6 5 4 4 3 1 0 1 1 0 0
0 0 0 0 0 0 1 7 18 24 22 22 26 28 29 30 32 31 32 39 45 49 50 48 47 47 45 39 34 31 29 26 22 16 11 6 4 4 4 4 3 3 2 1 0 0 0 0 0
0 0 0 0 0 0 1 6 18 26 23 21 23 26 27 27 29 29 29 32 39 45 47 46 44 43 41 36 32 29 25 19 15 11 7 5 5 4 3 3 3 3 2 1 0 0 0 0 0
0 0 0 0 0 0 1 6 20 27 22 16 17 21 23 23 25 27 26 29 36 41 44 44 41 37 35 31 27 25 21 15 12 9 6 4 4 3 3 3 3 3 2 1 0 0 0 0 0
0 0 0 0 0 0 1 7 20 26 20 12 10 13 16 18 22 25 25 27 32 37 41 42 40 35 31 28 25 21 16 13 11 9 6 4 3 3 3 3 3 3 2 1 0 0 0 0 0
0 0 0 0 0 0 1 6 16 23 20 13 8 9 12 14 19 23 26 27 29 33 37 40 39 35 30 26 23 18 12 10 9 8 6 4 3 3 3 3 3 3 3 1 0 0 0 0 0
0 0 0 0 0 0 0 3 10 17 19 15 11 10 11 11 15 21 26 26 26 27 30 34 35 32 27 23 20 15 11 10 9 9 7 4 3 3 3 3 3 3 3 2 2 1 1 0 0
0 0 0 0 0 0 0 1 4 7 11 13 11 10 8 6 9 17 23 24 23 22 23 25 28 28 25 21 18 15 13 14 13 10 6 4 3 3 3 3 3 3 3 3 3 2 1 0 0
0 0 0 0 0 1 0 0 1 1 3 7 8 7 5 3 5 11 17 20 19 19 18 18 22 25 25 22 19 17 16 16 14 8 4 3 3 3 4 3 3 3 3 3 2 1 0 0 0
0 0 0 0 0 0 0 0 0 0 1 2 4 5 3 2 4 7 11 15 16 17 16 18 22 24 23 22 21 20 18 14 9 6 3 3 3 4 5 5 4 4 3 3 1 0 0 0 0
0 0 0 0 0 0 0 0 0 0 0 1 2 2 1 3 4 5 8 11 14 15 17 20 23 23 22 21 22 22 18 12 8 6 4 3 3 4 7 8 6 4 3 2 1 0 0 0 0
0 0 0 0 0 0 0 0 0 0 0 0 1 0 1 2 3 4 6 10 13 15 19 22 23 23 23 22 21 20 17 12 11 9 6 4 3 5 8 9 7 4 2 1 1 1 1 1 1
0 0 0 0 0 0 0 0 1 1 1 0 0 0 0 2 3 3 6 11 14 17 19 21 23 24 24 24 23 22 18 14 13 13 11 9 9 9 9 10 8 5 3 3 3 3 3 3 3
0 0 0 0 0 0 0 1 1 2 1 1 0 0 1 2 3 4 7 12 16 17 17 18 22 24 24 25 27 26 21 17 16 16 15 16 15 12 10 10 10 7 4 4 5 5 4 5 5

GEFSSGP_con_probscp_114.txt.gz
Probability
0 0 0 0 0 0 0 0 0 0 2 5 6 6 5 2 0 0 1 3 4 4 3 3 4 3 1 0 0 0 0 0 0 0 0 0 0 0 0 0 0 0 0 0 0 0 0 0 0
0 0 0 0 0 0 0 0 0 1 3 7 9 9 8 4 1 0 2 6 11 10 6 6 8 6 3 1 1 0 0 0 0 0 0 0 0 0 0 0 0 0 0 0 0 0 0 0 0
0 0 0 0 0 0 0 0 0 3 8 12 13 13 11 7 3 1 4 12 18 17 13 12 13 10 7 5 3 1 0 0 0 0 0 0 0 0 0 0 0 0 0 0 0 0 0 0 0
0 0 0 0 0 0 0 0 2 7 14 17 17 17 14 11 9 6 8 15 21 21 20 19 18 14 10 9 6 2 0 0 0 0 0 0 0 0 0 0 0 0 0 0 0 0 0 0 0
0 0 0 0 0 0 0 0 4 11 18 22 22 20 18 18 19 17 14 18 24 28 27 25 22 17 12 10 8 4 1 0 0 0 0 0 0 0 0 0 0 0 0 0 0 0 0 0 0
0 0 0 0 0 0 0 1 6 14 21 25 24 23 22 25 28 24 21 23 32 40 37 29 25 20 14 11 9 5 2 0 0 0 0 0 0 0 0 0 0 0 0 0 0 0 0 0 0
0 0 0 0 0 0 0 2 6 12 19 23 24 24 26 28 29 27 26 31 40 48 44 34 26 21 15 12 9 7 4 1 0 0 0 0 0 0 0 0 0 0 0 0 0 0 0 0 0
0 0 0 0 0 0 1 2 4 8 16 22 23 24 28 31 32 33 34 38 43 46 43 36 29 23 18 13 9 6 4 1 0 0 0 0 0 0 0 0 0 0 0 0 0 0 0 0 0
0 0 0 0 0 0 1 2 3 8 18 26 27 27 31 38 42 45 46 44 44 43 40 36 31 27 22 15 10 7 4 2 0 0 1 0 0 0 0 0 0 0 0 0 0 0 0 0 0
0 0 0 0 0 0 2 3 3 11 21 29 34 37 40 45 49 51 50 48 46 42 36 31 27 25 22 17 13 9 6 3 1 0 0 0 0 0 0 0 0 0 0 0 0 0 0 1 1
0 0 0 1 1 1 3 4 4 10 20 29 38 45 47 49 52 51 49 46 42 35 28 26 24 21 19 17 15 11 6 3 1 0 0 0 0 0 0 0 0 0 0 0 0 0 0 0 0
0 0 0 1 2 2 3 3 5 12 22 31 41 47 49 50 50 48 47 43 36 28 22 23 23 19 16 15 14 9 4 2 0 0 0 0 0 0 0 0 0 0 0 0 0 0 0 0 0
0 0 0 1 1 2 3 3 6 16 27 37 46 49 48 47 44 39 40 39 34 28 23 22 22 19 16 15 12 7 2 0 0 0 0 0 0 0 0 0 0 0 0 0 0 0 0 0 0
0 0 0 0 0 1 2 2 7 18 30 40 46 46 44 40 34 30 33 35 33 29 28 26 24 22 19 17 14 8 3 1 1 0 0 0 0 0 0 0 0 0 0 0 0 0 0 0 0
0 0 0 0 0 0 1 1 5 15 27 35 39 39 37 34 27 25 29 33 32 33 33 31 27 24 23 21 18 12 6 4 2 1 0 0 0 0 0 0 0 0 0 0 0 0 0 0 0
0 0 0 0 0 0 0 1 5 13 22 27 30 33 33 31 27 24 27 31 32 34 36 35 30 26 25 24 20 16 11 7 4 1 2 3 2 2 1 0 0 0 0 0 0 0 0 0 0
0 0 0 0 0 0 0 3 9 14 17 20 25 30 32 31 27 25 26 29 31 33 35 35 32 29 28 27 23 18 13 9 6 4 4 5 4 3 2 1 0 0 0 0 0 0 0 0 0
0 0 0 0 0 0 1 5 12 17 17 17 21 29 33 31 28 26 26 28 30 32 34 34 33 33 32 30 26 19 14 11 8 7 5 4 4 3 3 1 0 0 0 0 0 0 0 0 0
0 0 0 0 0 1 3 7 13 15 15 15 18 24 28 29 27 25 25 27 29 31 33 33 33 33 32 30 27 22 16 11 9 7 4 3 3 3 3 2 1 0 0 0 0 0 0 0 0
0 0 0 0 1 2 5 9 11 12 12 11 13 14 18 22 24 23 23 25 28 28 29 30 30 29 28 27 26 22 18 12 7 4 4 3 3 3 3 3 2 0 0 0 0 0 0 0 0
0 0 0 0 1 2 5 6 7 7 7 7 6 6 8 14 18 20 21 22 24 24 23 24 24 23 23 23 22 20 16 11 6 3 3 3 3 3 3 3 1 0 0 0 0 0 0 0 0
0 0 0 0 0 1 2 2 2 3 3 2 2 2 4 9 13 15 18 19 19 20 19 19 18 18 19 18 18 17 14 10 7 4 3 3 3 3 3 3 1 0 0 0 0 0 0 0 0
0 0 0 0 0 0 0 0 1 1 1 0 1 2 3 5 7 10 12 14 17 18 17 16 14 14 14 13 13 13 11 8 6 5 3 3 3 3 3 3 2 0 0 0 0 0 0 0 0
0 0 0 0 0 0 0 0 1 1 1 0 1 2 2 2 3 5 7 10 14 15 13 12 10 9 10 9 9 9 7 5 4 4 2 1 2 2 2 2 1 0 0 0 0 0 0 0 0
0 0 0 0 0 0 0 0 0 0 0 0 0 1 2 2 2 3 4 7 11 11 9 8 7 8 9 8 6 5 5 4 3 3 1 0 1 1 1 1 0 0 0 0 0 0 0 0 0
0 0 0 0 0 0 0 0 0 0 0 0 0 1 2 2 2 3 4 6 8 8 7 7 7 8 10 9 6 4 3 3 3 2 1 0 0 0 0 0 0 0 0 0 0 0 0 0 0
0 0 0 0 0 0 0 0 0 0 0 0 0 1 2 3 3 3 4 5 6 6 7 8 8 9 10 10 7 4 3 3 3 2 1 0 0 0 0 0 0 0 0 0 0 0 0 0 0
0 0 0 0 0 0 0 0 0 0 0 0 0 1 2 3 3 2 2 4 4 6 8 10 10 9 8 8 7 5 3 3 2 1 0 0 0 0 0 0 0 0 0 0 0 0 0 0 0
0 0 0 0 0 0 0 0 0 0 0 0 0 0 1 3 3 2 2 3 4 6 9 10 9 8 7 7 6 6 4 3 2 0 0 0 0 0 0 0 0 0 0 0 0 0 0 0 0
0 0 0 0 0 0 0 0 0 0 0 0 0 0 1 2 3 2 2 4 5 6 9 9 8 7 6 6 6 6 5 3 2 1 0 0 0 0 0 0 0 0 0 0 0 0 0 0 0

GEFSSGP_con_probscp_120.txt.gz
Probability
0 0 0 0 0 0 0 0 0 0 0 0 0 0 1 0 0 0 0 0 1 0 0 0 1 1 0 0 0 0 0 0 0 0 0 0 0 0 0 0 0 0 0 0 0 0 0 0 0
0 0 0 0 0 0 0 0 0 0 0 0 0 0 1 0 0 0 0 1 2 1 1 3 5 4 2 1 1 0 0 0 0 0 0 0 0 0 0 0 0 0 0 0 0 0 0 0 0
0 0 0 0 0 0 0 0 0 0 0 1 2 2 1 1 0 0 1 2 4 3 3 7 13 12 6 3 2 1 0 0 0 0 0 0 0 0 0 0 0 0 0 0 0 0 0 0 0
0 0 0 0 0 0 0 0 0 0 0 3 6 6 3 2 2 2 3 5 7 7 8 14 21 20 13 8 6 4 2 0 0 0 0 0 0 0 0 0 0 0 0 0 0 0 0 0 0
0 0 0 0 0 0 0 0 0 0 2 7 10 10 6 4 5 6 6 7 10 12 14 20 25 24 19 14 9 6 3 1 0 0 0 0 0 0 0 0 0 0 0 0 0 0 0 0 0
0 0 0 0 0 0 0 0 0 2 6 11 15 14 10 8 9 10 9 9 14 19 21 24 26 24 21 17 12 7 4 1 0 0 0 0 0 0 0 0 0 0 0 0 0 0 0 0 0
0 0 0 0 0 0 0 0 1 4 8 13 16 15 11 10 13 15 13 13 19 26 29 29 28 26 21 17 12 8 4 2 1 0 0 0 0 0 0 0 0 0 0 0 0 0 0 0 0
0 0 0 0 0 0 0 0 1 3 7 12 14 12 11 12 17 20 18 18 25 33 35 35 33 29 23 16 12 7 4 2 1 0 0 0 0 0 0 0 0 0 0 0 0 0 0 0 0
0 0 0 0 0 0 0 0 1 3 7 11 12 12 15 21 26 27 26 25 30 35 36 36 35 30 24 18 14 10 6 3 1 0 0 0 0 0 0 0 0 0 0 0 0 0 0 0 0
0 0 0 0 0 0 0 0 1 5 9 12 15 20 29 37 37 34 32 32 35 37 36 35 35 31 26 21 17 14 11 7 3 1 0 0 0 0 0 0 0 0 0 0 0 1 0 0 0
0 0 0 0 0 0 0 0 2 5 9 14 22 35 45 47 43 37 33 34 38 39 38 36 34 32 27 22 19 18 15 12 7 2 0 0 0 0 0 0 0 0 0 0 0 0 0 0 0
0 0 0 0 0 0 1 2 4 5 9 17 31 46 54 51 44 35 31 33 38 41 40 37 32 27 24 21 19 17 16 14 8 2 0 0 0 0 0 0 0 0 0 0 0 0 0 0 0
0 0 0 0 0 1 2 3 5 6 11 21 36 49 53 51 45 36 29 32 39 41 39 34 28 24 22 21 20 18 16 12 6 2 0 0 0 0 0 0 0 0 0 0 0 0 0 0 0
0 0 0 0 0 1 2 2 4 7 13 24 36 44 46 46 43 36 31 34 37 36 33 29 26 22 21 22 22 18 14 9 3 1 0 0 0 0 0 0 0 0 0 0 0 0 0 0 0
0 0 0 0 0 0 0 1 2 7 16 27 34 37 38 38 37 34 31 32 31 27 25 24 22 20 19 19 19 16 12 7 2 0 0 0 0 0 0 0 0 0 0 0 0 0 0 0 0
0 0 0 0 0 0 0 0 1 7 19 29 30 29 30 29 28 27 27 25 23 20 19 19 19 18 16 14 14 12 9 6 3 1 0 0 0 0 0 0 0 0 0 0 0 0 0 0 0
0 0 0 0 0 0 0 0 0 5 16 23 24 24 25 24 21 22 21 19 17 18 17 18 19 19 16 12 10 9 8 6 3 1 0 0 0 0 0 0 0 0 0 0 0 0 0 0 0
0 0 0 0 0 0 0 0 0 3 8 13 16 19 21 20 18 18 17 15 15 17 18 18 20 22 20 12 7 6 7 5 2 1 0 0 0 0 0 0 0 0 0 0 0 0 0 0 0
0 0 0 0 0 0 0 0 1 1 3 7 11 14 17 17 15 15 15 14 14 16 18 18 20 22 19 12 7 5 6 5 2 0 0 0 0 0 0 0 0 0 0 0 0 0 0 0 0
0 0 0 0 0 0 0 0 1 2 2 4 7 8 11 13 14 14 14 13 13 15 16 16 16 16 14 10 8 6 6 5 2 0 1 1 1 1 0 0 0 0 0 0 0 0 0 0 0
0 0 0 0 0 0 0 0 1 2 2 2 3 3 5 9 11 11 10 10 11 13 14 14 13 12 10 9 9 9 7 5 2 0 1 2 3 2 1 0 0 0 0 0 0 0 0 0 0
0 0 0 0 0 0 0 0 1 2 3 2 1 0 1 3 5 5 5 6 8 11 12 12 12 11 10 10 11 11 9 6 3 1 1 2 3 3 2 1 0 0 0 0 0 0 0 0 0
0 0 0 0 0 0 0 0 0 1 2 2 1 1 1 1 1 2 3 4 6 8 9 11 11 10 9 10 11 11 9 7 4 2 1 1 2 2 2 1 0 0 0 0 0 0 0 0 0
0 0 0 0 0 0 0 0 0 0 0 0 0 1 1 1 1 1 3 4 5 7 8 9 10 9 9 10 10 9 8 6 5 2 1 2 1 1 1 0 0 0 0 0 0 0 0 0 0
0 0 0 0 0 0 0 0 0 0 0 0 0 0 1 1 1 1 3 4 6 7 7 8 8 9 9 10 9 8 6 5 4 3 3 2 1 0 0 0 0 0 0 0 0 0 0 0 0
0 0 0 0 0 0 0 0 0 0 0 0 0 0 0 0 0 0 1 3 4 6 8 9 9 8 8 9 9 8 5 4 4 3 3 2 1 0 0 0 0 0 0 0 0 0 0 0 0
0 0 0 0 0 0 0 0 0 0 0 0 0 0 0 0 0 0 0 1 2 4 7 9 10 9 8 7 8 7 6 4 4 3 1 1 0 0 0 0 0 0 0 0 0 0 0 0 0
0 0 0 0 0 0 0 0 0 0 0 0 0 0 0 0 0 0 0 0 1 2 5 9 11 10 8 7 7 7 7 7 5 3 1 0 0 0 0 0 0 0 0 0 0 0 0 0 0
0 0 0 0 0 0 0 0 0 0 0 0 0 0 0 0 0 0 0 0 0 1 4 8 10 9 8 7 7 7 8 7 5 2 1 0 0 0 0 0 0 0 0 0 0 0 0 0 0
0 0 0 0 0 0 0 0 0 0 0 0 0 0 0 0 0 0 0 0 0 1 4 7 9 8 7 7 7 8 7 5 4 2 0 0 0 0 0 0 0 0 0 0 0 0 0 0 0

GEFSSGP_con_probscp_126.txt.gz
Probability
0 0 0 0 0 0 0 0 0 0 0 0 0 0 0 0 0 0 0 0 0 0 0 0 0 0 0 0 0 0 1 0 0 0 0 0 0 0 0 0 0 0 0 0 0 0 0 0 0
0 0 0 0 0 0 0 0 0 0 0 0 0 0 0 0 0 0 0 0 0 0 0 0 0 0 0 0 0 0 1 0 0 0 0 0 0 0 0 0 0 0 0 0 0 0 0 0 0
0 0 0 0 0 0 0 0 0 0 0 0 0 0 0 0 0 0 0 0 0 0 0 1 1 1 1 0 0 0 0 0 0 0 0 0 0 0 0 0 0 0 0 0 0 0 0 0 0
0 0 0 0 0 0 0 0 0 0 0 0 0 0 0 0 0 0 0 0 0 0 0 1 2 2 1 1 1 0 0 0 0 0 0 0 0 0 0 0 0 0 0 0 0 0 0 0 0
0 0 0 0 0 0 0 0 0 0 0 0 0 0 0 0 0 0 0 0 0 0 1 2 3 3 2 2 2 1 1 1 0 0 0 0 0 0 0 0 0 0 0 0 0 0 0 0 0
0 0 0 0 0 0 0 0 0 0 0 0 0 0 1 1 1 1 1 1 0 1 3 4 5 3 3 4 3 2 2 2 1 0 0 0 0 0 0 0 0 0 0 0 0 0 0 0 0
0 0 0 0 0 0 0 0 0 0 0 0 0 1 3 4 4 4 4 3 1 3 5 6 6 4 4 5 5 4 3 3 2 1 0 0 0 0 0 0 0 0 0 0 0 0 0 0 0
0 0 0 0 0 0 0 0 0 0 0 1 1 3 7 11 12 11 11 8 5 4 6 7 7 6 5 5 5 5 4 3 3 2 1 0 0 0 0 0 0 0 0 0 0 0 0 0 0
0 0 0 0 0 0 0 0 0 0 1 2 3 6 12 20 24 24 22 19 15 12 10 11 11 9 6 5 5 4 3 3 3 3 1 0 0 0 0 0 0 0 0 0 0 0 0 0 0
0 0 0 0 0 0 0 0 0 0 1 3 5 9 18 29 36 35 30 28 29 25 19 18 17 15 12 11 11 9 8 6 4 3 2 1 0 0 0 0 0 0 0 0 0 0 0 0 0
0 0 0 0 0 0 0 0 0 0 1 3 6 13 25 38 43 41 35 33 35 33 27 25 24 22 21 22 22 20 16 11 7 5 4 2 1 0 0 0 0 0 0 0 0 0 0 0 0
0 0 0 0 0 0 0 0 0 0 1 3 8 20 35 45 45 42 39 37 37 37 33 31 31 32 33 35 34 27 20 14 12 11 9 5 2 0 0 0 0 0 0 0 0 0 0 0 0
0 0 0 0 0 0 0 0 0 1 2 4 10 25 39 45 45 44 44 44 43 42 39 38 39 41 44 47 43 31 22 18 17 17 15 9 4 2 0 0 0 0 0 0 0 0 0 0 0
0 0 0 0 0 0 0 0 0 2 3 5 12 24 34 38 42 46 49 49 48 47 46 45 46 47 49 51 46 34 25 22 20 20 19 13 7 4 2 1 0 0 0 0 0 0 0 0 0
0 0 0 0 0 0 0 0 1 3 5 7 14 23 29 34 40 45 46 46 46 48 49 48 47 50 51 48 42 33 27 24 22 22 22 16 10 7 5 3 1 0 0 0 0 0 0 0 0
0 0 0 0 0 0 0 0 1 3 6 10 17 25 29 32 36 38 38 37 39 44 48 46 43 46 48 47 42 33 28 26 25 24 24 19 12 8 7 5 3 1 0 0 0 0 0 0 0
0 0 0 0 0 0 0 0 1 4 8 13 19 24 28 30 31 32 31 32 34 39 43 40 36 37 40 43 44 36 30 28 26 24 23 20 14 9 7 7 6 3 1 0 0 0 0 0 0
0 0 0 0 0 0 0 0 1 5 10 15 17 19 22 26 27 27 29 31 33 36 36 33 29 31 34 39 42 40 31 25 24 24 22 19 15 10 8 8 7 5 2 1 0 0 0 0 0
0 0 0 0 0 0 0 0 1 5 10 14 15 14 16 21 24 26 28 29 31 32 31 28 26 27 32 38 44 42 34 24 22 23 22 18 14 11 8 7 7 6 4 2 1 0 0 0 0
0 0 0 0 0 0 0 0 1 4 8 11 11 11 13 17 23 26 28 28 26 27 27 25 25 26 30 38 43 41 35 26 22 22 20 17 14 12 8 7 6 6 5 3 2 1 0 0 0
0 0 0 0 0 0 0 0 2 4 5 7 7 9 11 14 18 22 24 23 20 20 24 25 27 29 29 32 34 34 31 26 23 21 19 17 16 12 9 7 6 6 4 3 3 2 1 1 0
0 0 0 0 0 0 0 0 1 2 4 5 6 7 9 10 12 15 18 17 13 13 18 22 25 27 28 26 25 25 25 25 24 22 21 19 17 13 9 7 6 6 4 3 3 3 3 2 1
0 0 0 0 0 0 0 0 0 1 2 4 6 7 8 8 9 11 12 11 9 8 11 14 16 19 25 25 22 21 21 23 24 23 21 18 16 12 9 7 7 6 4 3 3 3 3 3 2
0 0 0 0 0 0 0 0 0 0 0 2 5 8 10 10 9 9 9 7 5 5 6 8 9 13 19 22 20 18 17 18 21 20 18 17 15 13 11 9 8 7 5 4 3 3 3 3 3
0 0 0 0 0 0 0 0 0 0 0 1 3 6 10 12 11 9 7 5 4 4 4 5 9 13 17 17 15 14 14 15 18 18 17 16 15 14 13 11 10 8 6 5 4 4 3 3 3
0 0 0 0 0 0 0 0 0 0 0 0 1 3 8 12 12 10 6 5 6 6 5 6 9 12 15 15 14 14 15 17 18 17 15 14 13 12 13 12 10 7 6 6 6 5 4 3 3
0 0 0 0 0 0 0 0 0 0 0 0 1 2 6 9 10 8 5 4 7 7 7 8 10 10 12 14 15 16 18 18 18 16 14 13 12 11 11 11 8 5 4 5 6 4 3 3 3
0 0 0 0 0 0 0 0 0 0 0 1 2 3 4 6 6 4 3 4 6 6 8 10 9 8 8 10 13 15 17 18 17 15 15 14 13 12 11 9 6 4 3 4 5 4 3 3 3
0 0 0 0 0 0 0 0 0 0 0 1 2 2 2 2 2 1 2 4 5 5 6 8 8 6 5 7 11 13 16 19 17 15 15 14 13 12 11 9 6 4 3 4 4 3 2 2 3
0 0 0 0 0 0 0 0 0 0 0 0 1 1 1 1 0 1 2 4 5 4 5 6 7 6 5 7 11 15 17 19 17 15 15 14 13 13 12 10 7 4 3 4 3 2 2 2 3

GEFSSGP_con_probscp_132.txt.gz
Probability
0 1 3 5 4 3 2 1 0 0 0 0 0 0 0 0 0 0 3 13 21 17 7 4 2 1 0 0 0 0 0 0 0 0 0 0 0 0 0 0 0 0 0 0 0 0 0 0 0
1 1 1 2 2 1 1 0 0 0 0 0 0 0 0 0 0 1 4 14 20 15 7 6 4 2 0 0 0 0 0 0 0 0 0 0 0 0 0 0 0 0 0 0 0 0 0 0 0
0 0 0 1 1 0 0 0 0 0 0 0 0 0 0 0 1 2 5 13 19 16 11 10 9 4 0 0 0 0 0 0 0 0 0 0 0 0 0 0 0 0 0 0 0 0 0 0 0
0 0 1 2 1 0 0 0 0 0 0 0 0 1 1 1 2 5 6 12 19 18 14 15 14 8 2 0 0 0 0 0 0 0 0 0 0 0 0 0 0 0 0 0 0 0 0 0 0
0 1 2 2 1 0 0 0 0 0 0 0 1 3 3 2 4 6 6 10 17 18 15 16 18 13 4 1 0 0 0 0 0 0 0 0 0 0 0 0 0 0 0 0 0 0 0 0 0
1 1 2 2 1 0 0 0 0 0 0 0 2 5 6 5 5 5 5 7 15 21 18 15 17 14 6 2 0 0 0 0 0 0 0 0 0 0 0 0 0 0 0 0 0 0 0 0 0
0 1 1 1 0 0 0 0 0 0 0 0 2 6 10 10 6 4 4 8 18 29 25 15 11 11 7 3 1 0 0 0 0 0 0 0 0 0 0 0 0 0 0 0 0 0 0 0 0
0 0 0 0 0 0 0 0 0 0 0 1 3 9 16 15 8 4 5 10 23 34 29 16 10 9 7 5 2 0 0 0 0 0 0 0 0 0 0 0 0 0 0 0 0 0 0 0 0
0 0 0 0 0 0 0 0 0 0 1 3 6 12 20 20 15 10 10 15 27 36 31 20 15 11 8 6 5 3 1 1 0 0 0 0 0 0 0 1 1 0 0 0 0 0 0 0 0
0 0 0 0 0 0 0 0 0 0 2 6 11 17 23 24 22 20 19 22 31 36 33 29 27 20 12 10 11 7 4 3 2 1 2 1 1 1 1 2 1 0 0 0 0 0 0 0 0
0 0 0 0 0 0 0 0 0 0 2 8 16 23 26 26 25 25 27 32 38 38 34 36 41 34 24 20 18 13 10 9 7 5 4 3 3 3 3 3 2 0 0 0 0 0 0 0 0
0 0 0 0 0 0 0 0 0 1 3 8 17 27 29 28 29 29 33 42 50 46 38 42 52 51 44 36 26 20 18 14 13 13 9 5 5 5 5 5 3 1 0 0 0 0 0 0 0
0 0 0 0 0 0 0 0 0 2 4 7 17 28 33 34 36 37 43 54 62 58 49 53 62 64 61 53 41 33 28 22 23 23 17 11 10 11 11 9 6 1 0 0 0 0 0 0 0
0 0 0 0 0 0 0 0 1 3 5 7 15 26 35 42 46 49 56 64 69 66 61 66 71 71 69 64 56 49 41 34 33 33 26 18 17 19 18 15 8 3 1 1 0 0 0 0 0
0 0 0 0 0 0 0 0 2 4 6 8 15 25 38 49 56 60 65 69 71 70 69 71 72 70 68 67 63 56 49 44 42 40 34 25 23 23 22 18 11 6 4 2 0 0 0 0 0
0 0 0 0 0 0 0 1 4 7 8 11 16 25 42 55 62 64 67 70 73 73 73 71 68 67 66 65 63 57 51 49 48 45 39 32 27 24 21 17 12 9 7 3 1 0 0 0 0
0 0 0 0 0 0 0 2 7 10 10 12 15 25 44 60 65 67 68 71 74 75 74 71 66 64 63 61 60 56 52 51 49 46 41 37 31 25 20 16 13 10 8 5 2 0 0 0 0
0 0 0 0 0 0 0 2 7 10 10 11 16 29 47 62 69 71 70 69 70 72 73 70 65 62 60 57 54 53 52 51 48 43 40 37 31 25 20 18 15 11 9 7 5 2 1 0 0
0 0 0 0 0 0 0 1 5 9 10 11 18 33 49 62 71 73 70 65 65 68 69 66 62 59 56 53 49 48 49 48 45 39 35 31 26 22 21 21 19 15 13 11 9 6 2 0 0
0 0 0 0 0 0 0 1 5 9 11 11 17 30 44 57 66 70 67 63 63 65 65 62 59 55 51 47 43 41 42 43 41 36 30 24 20 19 20 22 20 18 16 13 11 8 5 2 0
0 0 0 0 0 0 0 2 7 12 12 11 14 24 36 47 59 66 64 61 62 62 62 59 54 49 44 40 37 34 35 36 35 33 28 23 19 18 21 22 20 17 15 12 11 9 6 4 2
0 0 0 0 0 0 0 3 9 14 13 10 13 22 30 39 52 60 61 60 60 59 56 52 47 42 36 33 32 29 29 31 33 33 31 26 21 20 22 24 22 18 14 11 10 9 7 6 5
0 0 0 0 0 0 0 2 8 12 10 7 12 21 29 37 47 55 58 56 55 52 47 43 39 34 31 29 27 26 26 28 31 33 33 28 23 21 22 24 23 19 14 12 10 9 9 7 7
0 0 0 0 0 0 0 1 5 6 4 4 11 19 26 34 44 52 54 52 49 43 39 37 35 31 28 26 22 21 23 24 26 28 29 27 25 20 17 19 22 20 17 14 11 10 9 8 7
0 0 0 0 0 0 0 1 2 2 1 3 9 16 22 28 38 46 50 47 41 35 32 33 34 32 28 22 16 14 16 19 21 23 25 24 21 16 14 18 21 21 20 17 12 10 9 8 7
0 0 0 0 0 0 0 0 1 1 1 3 7 13 17 22 28 38 44 40 32 26 24 28 31 30 26 19 12 9 11 16 19 21 21 20 16 14 17 22 23 22 20 16 13 11 10 8 7
0 0 0 0 0 0 0 0 1 1 2 3 7 10 14 16 21 30 35 31 25 21 20 23 26 27 24 19 13 10 12 16 19 20 19 18 16 16 22 25 23 21 19 16 14 11 9 9 7
0 0 0 0 0 0 0 0 1 1 2 4 7 9 11 15 19 25 26 25 23 21 19 21 23 25 24 20 16 15 17 20 21 22 20 19 20 23 26 25 21 19 19 18 15 11 9 8 7
0 0 0 0 0 0 0 0 1 2 3 5 6 7 10 14 18 21 20 20 21 20 18 18 19 20 20 18 16 16 19 22 23 24 23 23 26 29 27 23 20 18 17 17 14 12 10 7 6
0 0 0 0 0 0 0 0 1 2 4 5 6 6 9 13 17 18 17 16 18 18 17 16 16 16 15 14 14 16 18 21 23 25 24 25 28 32 28 21 17 16 15 15 14 13 11 8 5

GEFSSGP_con_probscp_138.txt.gz
Probability
0 0 0 0 0 0 0 0 0 0 1 0 0 0 0 0 0 0 0 0 0 0 0 0 0 0 0 0 0 0 0 0 0 0 0 0 0 0 0 0 0 0 0 0 0 0 0 0 0
0 0 0 0 0 0 0 0 0 0 1 1 0 0 0 0 0 0 0 1 1 1 1 2 3 2 0 0 0 0 0 0 0 0 0 0 0 0 0 0 0 0 0 0 0 0 0 0 0
0 0 0 0 0 0 0 0 0 1 2 3 2 1 0 1 1 1 1 2 2 3 4 6 7 5 2 0 0 0 0 0 0 0 0 0 0 0 0 0 0 0 0 0 0 0 0 0 0
0 0 0 0 0 0 0 0 0 1 4 5 4 2 0 2 6 7 5 4 4 4 5 8 9 7 3 1 0 0 0 0 0 0 0 0 0 0 0 0 0 0 0 0 0 0 0 0 0
0 0 0 0 0 0 0 0 1 4 8 9 6 3 3 9 17 15 8 6 6 5 6 9 11 9 5 2 0 0 0 0 0 0 0 0 0 0 0 0 0 0 0 0 0 0 0 0 0
0 0 0 0 0 0 0 1 3 8 12 12 8 5 8 20 27 19 9 7 7 7 8 11 13 10 7 4 2 0 0 0 0 0 0 0 0 0 0 0 0 0 0 0 0 0 0 0 0
0 0 0 0 0 0 0 1 4 9 13 13 10 8 13 26 31 21 10 7 6 7 9 12 11 9 7 5 2 0 0 0 0 0 0 0 0 0 0 0 0 0 0 0 0 0 0 0 0
0 0 0 0 0 0 0 1 3 8 12 13 11 10 16 27 33 27 17 10 6 5 7 9 10 9 8 6 2 0 0 0 0 0 0 0 0 0 0 0 0 0 0 0 0 0 0 0 0
0 0 0 0 0 0 0 1 3 9 13 12 11 14 22 33 39 37 27 14 7 6 6 7 10 12 11 9 4 2 1 0 0 0 0 0 0 0 0 0 0 0 0 0 0 0 0 0 0
0 0 0 0 0 0 0 0 4 10 13 12 14 22 32 39 45 44 34 20 12 10 9 10 14 16 16 14 10 6 3 1 0 0 0 0 0 0 0 0 0 0 0 0 0 0 0 0 0
0 0 0 0 0 0 0 0 4 8 10 13 20 30 36 38 41 43 36 26 18 14 13 13 15 18 19 18 15 9 4 2 1 0 0 0 0 0 0 0 0 0 0 0 0 0 0 0 0
0 0 0 0 0 0 0 1 3 5 8 14 23 32 34 34 35 37 36 31 23 17 14 14 15 15 16 17 14 8 4 2 1 0 0 0 0 0 0 0 0 0 0 0 0 0 0 0 0
0 0 0 0 0 0 0 1 3 7 12 19 27 33 34 32 32 35 37 35 28 20 16 16 15 12 11 14 11 5 3 1 1 0 0 0 0 0 0 0 0 0 0 0 0 0 0 0 0
0 0 0 0 0 0 0 2 4 10 17 26 32 33 33 31 32 36 38 37 32 25 21 20 18 13 11 12 10 5 3 1 1 0 0 0 0 0 0 0 0 0 0 0 0 0 0 0 0
0 0 0 0 0 0 0 1 4 9 18 27 31 31 31 32 33 38 41 39 35 31 26 24 23 19 16 15 14 11 7 4 3 2 0 0 1 1 0 0 0 0 0 0 0 0 0 0 0
0 0 0 0 0 0 0 0 2 7 15 25 31 34 36 35 35 37 41 42 41 38 34 30 29 28 25 22 22 20 14 11 9 6 3 3 4 4 2 1 0 0 0 0 0 0 0 0 0
0 0 0 0 0 0 0 1 1 5 15 26 35 42 44 40 37 37 39 43 46 45 41 38 38 37 32 28 28 26 21 17 15 11 6 6 8 7 5 3 2 1 1 0 0 0 0 0 0
0 0 0 0 0 0 1 2 3 7 17 29 39 47 49 46 41 40 41 43 47 48 45 45 45 41 35 30 27 26 23 19 16 14 10 8 8 9 7 5 3 3 2 1 0 0 0 0 0
0 0 0 0 0 0 1 3 5 10 18 28 38 47 50 48 44 43 44 46 48 48 47 47 46 41 33 26 23 23 22 18 15 13 12 9 7 8 7 5 4 4 3 1 0 0 0 0 0
0 0 0 0 0 0 1 3 6 10 15 22 29 38 44 44 43 44 47 50 51 50 49 47 43 36 28 21 17 17 17 15 11 10 10 9 6 6 5 4 4 4 3 2 1 0 0 0 0
0 0 0 0 0 0 1 3 5 7 11 14 17 24 32 37 41 44 47 50 51 50 48 45 39 32 23 17 14 13 12 11 8 8 8 7 5 4 3 3 4 3 3 2 1 0 0 0 0
0 0 0 0 0 0 0 2 3 5 7 9 9 13 23 32 38 43 44 45 47 47 44 42 36 28 21 16 14 13 10 8 7 7 7 6 4 4 4 3 3 3 3 2 1 0 0 0 0
0 0 0 0 0 0 0 0 1 2 4 6 6 10 18 29 37 41 40 40 42 42 40 39 34 26 20 16 14 11 8 6 6 7 6 4 4 5 5 4 4 2 1 1 0 0 0 0 0
0 0 0 0 0 0 0 0 0 1 3 4 5 7 14 24 31 34 34 35 36 37 36 35 30 24 19 16 14 10 6 4 5 6 6 3 3 4 5 4 3 1 0 0 0 1 1 0 0
0 0 0 0 0 0 0 0 0 0 1 3 5 6 11 17 21 24 26 29 29 29 31 30 26 22 18 15 12 8 5 3 3 5 6 5 3 4 4 3 2 1 0 0 1 2 2 1 0
0 0 0 0 0 0 0 0 0 0 0 2 4 5 8 12 14 16 21 24 22 23 26 25 21 18 16 13 10 7 5 3 2 4 5 6 5 4 4 3 2 2 1 1 1 3 3 2 1
0 0 0 0 0 0 0 0 0 0 0 1 3 4 7 10 11 12 16 18 17 18 20 18 15 13 13 12 10 9 7 5 3 3 3 4 4 5 5 5 4 4 4 3 3 3 3 3 3
0 0 0 0 0 0 0 0 0 0 0 1 2 4 6 8 9 8 9 10 11 12 12 11 12 12 10 10 10 10 10 8 6 4 3 3 4 5 6 6 6 6 6 5 3 3 3 3 3
0 0 0 0 0 0 0 0 0 0 0 1 2 4 5 7 7 6 5 6 7 8 8 9 12 14 12 10 10 10 10 10 9 7 4 4 4 6 6 6 6 7 6 5 3 2 2 3 3
0 0 0 0 0 0 0 0 0 0 0 0 1 4 6 6 6 6 5 6 6 7 8 10 13 15 13 12 10 10 10 11 11 9 6 4 5 6 6 6 6 6 6 4 2 1 1 3 3

GEFSSGP_con_probscp_144.txt.gz
Probability
0 0 0 0 0 0 0 0 0 0 0 0 1 2 2 1 0 0 0 0 0 0 0 0 0 0 0 0 1 2 3 3 2 1 0 0 0 0 0 0 0 0 0 0 0 0 0 0 0
0 0 0 0 0 0 0 0 0 0 0 0 1 2 2 1 0 0 0 0 0 0 0 0 0 0 0 0 0 1 2 2 1 0 0 0 0 0 0 0 0 0 0 0 0 0 0 0 0
0 0 0 0 0 0 0 0 0 0 0 0 1 3 3 1 0 0 0 0 0 0 0 0 0 0 0 0 0 0 1 1 0 0 0 0 0 0 0 0 0 0 0 0 0 0 0 0 0
0 0 0 0 0 0 0 0 0 0 0 0 2 4 4 1 0 0 0 0 1 1 0 1 2 2 0 0 0 0 0 0 0 0 0 0 0 0 0 0 0 0 0 0 0 0 0 0 0
0 0 0 0 0 0 0 0 0 0 1 1 2 3 3 2 1 1 1 1 2 2 1 2 5 4 2 0 0 0 0 1 1 1 1 0 0 0 0 0 0 0 0 0 0 0 0 0 0
0 0 0 0 0 0 0 0 0 0 1 1 1 2 3 3 3 3 4 4 4 5 4 4 6 6 3 1 1 0 1 2 2 2 2 1 0 0 0 0 0 0 0 0 0 0 0 0 0
0 0 0 0 0 0 0 0 0 0 0 0 1 2 3 5 6 6 6 6 6 6 5 6 7 6 3 3 2 2 2 3 3 3 2 1 0 0 0 0 0 0 0 0 0 0 0 0 0
0 0 0 0 0 0 0 0 0 1 1 1 1 2 5 11 13 11 9 8 7 6 5 6 7 5 3 3 4 4 4 3 3 3 1 0 0 0 0 0 0 0 0 0 0 0 0 0 0
0 0 0 0 0 0 0 0 1 2 2 1 1 4 12 21 23 17 12 9 7 5 4 4 4 4 4 3 4 4 4 3 3 3 1 0 0 0 0 0 0 0 0 0 0 0 0 0 0
0 0 0 0 0 0 0 0 1 2 3 3 5 13 25 30 28 22 15 10 8 6 3 2 2 3 3 3 3 3 3 3 3 2 1 0 0 0 0 0 0 0 0 0 0 0 0 0 0
0 0 0 0 0 0 0 0 1 2 3 4 13 27 37 35 30 24 16 11 9 7 5 3 2 1 2 3 3 2 2 2 1 1 1 0 0 0 0 0 0 0 0 0 0 0 0 0 0
0 0 0 0 0 0 0 0 1 1 2 7 21 38 43 37 29 22 16 12 11 10 7 5 4 2 1 3 4 4 3 1 0 0 0 0 0 0 0 0 0 0 0 0 0 0 0 0 0
0 0 0 0 0 0 0 0 0 1 2 10 26 41 43 35 26 20 16 15 15 14 10 8 7 5 4 5 7 7 4 1 0 0 0 0 0 0 0 0 0 0 0 0 0 0 0 0 0
0 0 0 0 0 0 0 0 0 1 5 15 28 36 37 33 26 22 19 18 17 16 13 11 11 9 9 9 10 9 5 2 1 0 0 0 0 0 0 0 0 0 0 0 0 0 0 0 0
0 0 0 0 0 0 0 0 1 3 8 17 27 29 29 28 25 22 19 16 14 13 12 12 12 12 12 11 11 9 6 3 1 1 0 0 0 0 0 0 0 0 0 0 0 0 0 0 0
0 0 0 0 0 0 0 0 1 5 10 16 22 24 23 22 20 18 16 14 11 10 11 13 13 14 13 12 11 9 6 5 4 3 1 0 0 0 0 0 0 0 0 0 0 0 0 0 0
0 0 0 0 0 0 0 0 1 6 11 14 17 19 20 19 16 14 14 14 12 12 14 16 17 16 13 10 9 8 7 6 6 5 2 0 0 0 0 0 1 0 0 0 0 0 0 0 0
0 0 0 0 0 0 0 0 0 4 10 13 15 16 16 16 16 17 16 16 17 18 18 18 18 16 13 12 10 8 7 7 6 5 3 1 0 0 0 0 0 0 0 0 0 0 0 0 0
0 0 0 0 0 0 0 0 0 2 6 9 12 14 14 14 18 22 23 23 24 24 22 19 15 14 16 16 12 8 7 7 6 5 4 2 0 0 0 0 0 0 0 0 0 0 0 0 0
0 0 0 0 0 0 0 0 0 1 2 5 9 12 13 15 19 24 27 29 31 31 27 21 17 17 17 16 12 8 6 6 6 5 3 1 0 0 0 0 0 0 0 1 1 0 0 0 0
0 0 0 0 0 0 0 0 0 0 0 2 6 9 12 15 18 23 29 31 32 32 29 24 21 19 17 14 10 8 6 6 5 4 3 1 0 0 0 0 0 0 0 1 2 1 0 0 0
0 0 0 0 0 0 0 0 0 0 0 1 3 5 9 13 16 21 28 29 28 28 27 23 21 18 14 11 9 7 6 5 5 4 3 1 0 0 0 1 1 0 0 1 1 1 0 0 0
0 0 0 0 0 0 0 0 0 0 0 0 1 3 8 12 17 21 24 25 24 23 21 18 17 15 10 7 6 6 5 5 4 3 2 1 0 0 0 1 1 0 0 0 0 0 0 0 0
0 0 0 0 0 0 0 0 0 0 0 0 1 3 7 11 15 19 19 19 20 19 16 14 13 12 8 4 2 3 3 3 3 2 1 0 0 0 0 1 1 0 0 0 0 0 0 0 0
0 0 0 0 0 0 0 0 0 0 0 0 1 3 7 9 11 14 13 12 14 16 16 15 13 11 7 3 0 1 1 1 2 1 1 0 0 0 0 0 0 0 0 0 0 0 0 0 0
0 0 0 0 0 0 0 0 0 0 0 0 0 2 4 5 5 7 7 7 9 13 15 16 14 11 7 3 2 2 2 1 1 1 0 0 0 0 0 0 0 0 0 0 0 0 1 1 1
0 0 0 0 0 0 0 0 0 0 0 0 0 0 1 2 2 2 3 3 5 8 11 13 13 10 7 4 4 5 4 3 2 2 1 1 0 0 0 1 1 1 1 1 0 1 2 2 2
0 0 0 0 0 0 0 0 0 0 0 0 0 0 0 0 0 0 1 2 3 4 5 8 8 7 5 4 5 6 6 4 3 3 3 2 2 2 2 2 3 3 3 3 1 1 2 2 2
0 0 0 0 0 0 0 0 0 0 0 0 0 0 0 0 0 0 0 2 3 2 2 3 4 3 2 2 3 5 5 5 4 3 3 3 3 3 3 3 4 5 6 5 3 2 1 1 1
0 0 0 0 0 0 0 0 0 0 0 0 0 0 0 0 0 0 0 1 2 2 1 1 1 1 0 0 1 2 4 5 4 3 3 3 3 3 3 3 4 6 6 6 5 3 2 1 0

GEFSSGP_con_probscp_150.txt.gz
Probability
0 0 0 2 2 1 0 0 0 0 0 0 0 0 0 0 0 0 0 0 0 0 0 1 2 2 1 0 0 1 1 0 0 0 0 0 0 0 0 0 0 0 0 0 0 0 0 0 0
0 0 0 1 1 0 0 0 0 0 0 0 0 0 0 0 0 0 0 0 0 0 0 0 1 1 1 1 2 3 3 1 0 0 0 0 0 0 0 0 0 0 0 0 0 0 0 0 0
0 0 0 0 0 0 0 0 0 0 0 0 0 0 0 0 0 0 0 0 0 0 0 0 0 0 1 2 4 5 5 2 1 0 0 0 0 0 0 0 0 0 0 0 0 0 0 0 0
1 1 0 0 0 0 0 0 0 0 0 0 0 1 2 1 0 0 0 0 0 0 0 0 0 0 0 1 2 3 3 2 1 0 0 0 0 0 0 0 0 0 0 0 0 0 0 0 0
1 1 0 0 0 0 0 0 0 0 0 0 1 3 4 3 1 0 0 0 0 0 0 0 0 0 0 0 0 1 1 1 0 0 0 0 0 0 0 0 0 0 0 0 0 0 0 0 0
1 0 0 0 0 0 0 0 0 0 0 0 1 3 5 3 1 0 0 0 0 0 1 1 1 0 0 0 0 0 0 0 0 0 0 0 0 0 0 0 0 0 0 0 0 0 0 0 0
0 0 0 0 0 0 0 0 0 0 0 0 1 3 6 5 3 2 1 0 0 1 2 2 1 0 0 0 0 0 0 0 0 0 0 0 0 0 0 0 0 0 0 0 0 0 0 0 0
0 0 0 0 0 0 0 0 0 0 0 0 0 3 8 10 7 4 3 2 1 2 3 3 1 1 1 0 0 0 0 0 0 0 0 0 0 0 0 0 0 0 0 0 0 0 0 0 0
0 0 0 0 0 0 0 0 0 0 0 0 0 5 15 21 18 12 8 6 5 4 5 4 3 2 1 1 1 1 0 0 0 0 0 0 0 0 0 0 0 0 0 0 0 0 0 0 0
0 0 0 0 0 0 0 0 0 0 0 0 2 12 28 36 30 20 12 9 8 7 6 5 4 2 1 1 2 1 1 1 1 0 0 0 0 0 0 0 0 0 0 0 0 0 0 0 0
0 0 0 0 0 0 0 0 0 0 0 1 7 21 39 46 37 25 18 13 10 8 7 6 5 3 1 2 3 3 2 2 2 1 0 0 0 0 0 0 0 0 0 0 0 0 0 0 0
0 0 0 0 0 0 0 0 0 0 0 1 10 27 43 47 37 27 22 18 14 12 9 8 9 7 4 4 4 3 3 3 4 3 1 0 0 0 0 0 0 0 0 0 0 0 0 0 0
0 0 0 0 0 0 0 0 0 0 0 1 10 25 39 41 33 26 24 24 22 18 14 12 13 13 10 9 7 5 5 6 6 4 2 0 0 0 0 1 1 1 0 0 0 0 0 0 0
0 0 0 0 0 0 0 0 0 0 0 0 6 17 27 32 31 28 27 28 26 22 17 14 16 17 15 13 11 10 9 9 7 5 3 1 0 0 0 1 2 2 1 0 0 0 0 0 0
0 0 0 0 0 0 0 0 0 0 0 0 2 8 18 27 32 33 31 27 25 22 19 16 15 15 14 13 13 14 13 11 8 7 5 3 0 0 0 1 2 2 1 0 0 0 0 0 0
0 0 0 0 0 0 0 0 0 0 0 0 1 5 14 25 32 34 32 27 23 23 24 20 16 14 14 13 14 17 18 16 13 10 8 5 2 1 1 1 1 1 0 0 0 0 0 0 0
0 0 0 0 0 0 0 0 0 0 0 0 2 6 14 25 32 34 33 29 26 27 28 25 22 21 21 19 19 22 24 23 21 18 14 9 4 3 3 2 1 0 0 1 2 2 1 0 0
0 0 0 0 0 0 0 0 0 0 0 0 2 6 14 23 32 36 35 32 31 32 32 30 30 31 31 28 27 27 26 25 24 23 18 12 8 6 5 3 2 1 1 3 4 3 1 0 0
0 0 0 0 0 0 0 0 0 0 0 0 1 5 13 21 29 35 35 34 37 38 37 35 35 36 37 36 35 34 29 24 22 21 18 14 11 9 6 5 4 5 4 5 5 4 3 2 1
0 0 0 0 0 0 0 0 0 0 0 0 1 3 10 20 28 33 35 36 41 43 40 36 34 35 38 39 38 37 34 26 20 18 17 15 14 10 7 7 6 7 7 5 5 6 5 4 2
0 0 0 0 0 0 0 0 0 0 0 0 1 3 9 18 25 31 36 38 40 42 40 36 33 35 39 40 37 35 34 28 20 18 20 18 16 12 9 7 6 6 5 4 5 6 6 5 4
0 0 0 0 0 0 0 0 0 0 0 0 1 3 7 11 17 25 33 39 40 38 37 36 36 36 38 38 35 33 29 23 18 19 22 22 18 14 10 8 7 5 4 3 4 5 6 7 7
0 0 0 0 0 0 0 0 0 0 1 1 1 2 5 7 11 18 26 35 37 34 33 35 37 36 35 35 34 30 24 18 15 16 19 20 17 13 9 9 10 9 5 3 3 4 6 9 9
0 0 0 0 0 0 0 0 0 0 1 1 2 3 4 7 11 16 21 28 32 30 29 31 32 30 27 28 27 25 20 16 14 13 13 12 11 9 8 9 13 14 9 5 5 5 7 8 8
0 0 0 0 0 0 0 0 0 1 1 1 3 4 6 9 14 17 20 23 25 25 22 23 25 24 21 19 18 18 17 15 13 11 9 6 5 6 6 8 13 15 12 9 9 8 7 7 7
0 0 0 0 0 0 0 0 0 1 1 2 4 6 8 11 14 16 16 18 19 17 16 18 21 21 18 13 11 11 13 12 10 8 6 3 2 3 3 5 9 12 12 11 13 13 11 9 9
0 0 0 0 0 0 0 0 1 1 2 3 4 5 6 8 10 10 11 12 12 11 12 16 19 18 15 12 9 9 9 9 6 5 4 3 1 1 1 1 4 8 10 11 13 16 16 15 13
0 0 0 0 0 0 0 0 1 2 3 3 3 3 4 4 5 6 7 9 8 8 10 14 17 15 13 12 10 8 8 6 4 4 4 3 2 1 1 1 4 7 10 11 13 16 18 16 15
0 0 0 0 0 0 0 0 1 2 3 4 3 3 3 4 6 7 7 7 6 6 9 14 16 15 14 13 11 10 7 5 4 3 4 5 3 2 2 3 4 7 9 11 12 13 14 13 13
0 0 0 0 0 0 0 1 1 2 4 5 5 4 3 6 9 9 7 6 5 5 9 14 16 16 16 16 14 11 7 5 4 3 4 4 4 3 3 3 4 6 8 9 10 11 11 11 10

GEFSSGP_con_probscp_156.txt.gz
Probability
0 4 14 23 21 9 1 0 0 0 0 0 0 0 0 0 0 0 0 1 2 2 1 0 0 0 0 0 0 0 0 0 0 0 0 0 0 0 0 0 0 0 0 0 0 0 0 0 0
1 4 13 20 15 5 0 0 0 0 0 0 0 0 0 0 0 0 0 1 2 2 1 0 0 0 0 0 0 0 0 0 0 0 0 0 0 0 0 0 0 0 0 0 0 0 0 0 0
1 4 11 14 8 2 0 0 0 0 0 0 0 0 0 0 0 0 0 0 1 2 1 1 1 1 0 0 0 0 0 0 0 0 0 0 0 0 0 0 0 0 0 0 0 0 0 0 0
2 5 9 7 3 0 0 0 0 0 0 0 1 1 0 0 0 0 0 1 2 3 2 1 2 2 1 0 0 0 0 0 0 0 0 0 0 0 0 0 0 0 0 0 0 0 0 0 0
5 7 6 3 1 0 0 0 0 0 0 1 2 3 1 0 0 0 0 1 3 4 3 2 3 2 1 0 0 0 0 0 0 0 0 0 0 0 0 0 0 0 0 0 0 0 0 0 0
6 6 4 1 0 0 0 0 0 0 0 1 3 4 2 0 0 0 1 2 4 6 6 4 2 1 0 0 0 0 0 0 0 0 0 0 0 0 0 0 0 0 0 0 0 0 0 0 0
6 4 2 0 0 0 0 0 0 0 0 1 3 4 3 1 0 0 1 3 6 7 6 4 2 1 0 0 0 0 0 0 0 0 0 0 0 0 0 0 0 0 0 0 0 0 0 0 0
4 2 0 0 0 0 0 0 0 0 0 0 1 3 5 4 3 1 3 5 8 8 7 5 3 2 1 0 0 0 0 0 0 0 0 0 0 0 0 0 0 0 0 0 0 0 0 0 0
1 0 0 0 0 0 0 0 0 0 0 1 2 5 8 9 6 6 7 9 10 10 9 8 6 4 2 1 0 0 0 0 0 0 0 0 0 0 0 0 0 0 0 0 0 1 1 0 0
0 0 0 0 0 0 0 0 0 0 1 4 8 10 12 12 10 11 12 13 13 13 12 11 10 7 4 2 1 1 0 1 1 0 0 0 0 0 0 0 0 0 0 0 0 1 1 0 0
0 0 0 0 0 0 0 0 0 0 2 8 16 18 16 14 14 14 15 17 17 15 12 13 14 13 8 4 3 1 2 3 3 1 1 1 0 0 0 0 0 0 0 0 0 1 1 0 0
0 0 0 0 0 0 0 0 0 0 3 10 20 24 20 16 17 18 20 22 21 17 14 16 20 20 15 10 6 3 3 4 5 5 5 2 1 1 1 1 1 0 0 0 0 0 0 0 0
0 0 0 0 0 0 0 0 0 1 4 13 23 26 21 19 22 25 27 30 29 23 19 23 27 27 25 21 13 8 6 5 7 11 9 4 2 1 2 4 3 1 0 0 0 0 0 0 0
0 0 0 0 0 0 0 1 1 2 6 16 25 27 23 25 32 34 36 41 39 30 28 32 33 32 32 27 20 14 8 6 11 17 14 8 5 5 6 7 5 1 0 1 0 0 0 0 0
0 0 0 0 0 0 0 1 2 3 7 17 24 27 30 35 39 42 46 51 47 39 39 40 36 34 34 28 22 17 12 10 16 23 21 14 12 12 12 10 6 3 3 3 1 0 0 0 0
0 0 0 0 0 0 0 1 2 3 7 15 23 31 39 44 45 46 51 55 54 51 52 49 40 36 36 31 26 23 21 20 25 31 30 24 20 20 18 13 10 9 8 6 2 0 0 0 0
0 0 0 0 0 0 0 1 2 2 5 13 24 38 50 55 53 52 54 59 62 63 64 60 51 47 43 38 36 35 34 34 36 40 40 36 31 27 23 19 17 16 14 9 5 2 1 0 0
0 0 0 0 0 0 0 1 1 1 3 10 23 41 59 65 62 61 62 64 69 73 74 72 67 61 55 48 45 44 45 47 46 47 50 48 39 32 27 24 24 23 19 13 8 7 5 2 1
0 0 0 0 0 0 1 1 1 1 2 7 20 39 58 66 66 67 69 70 74 80 82 79 74 69 63 57 51 48 49 50 47 47 52 50 42 35 30 28 30 27 23 18 13 12 10 6 4
0 0 0 0 0 0 1 2 1 1 1 5 15 33 50 61 67 70 73 75 79 84 85 81 76 71 65 61 55 50 49 44 39 41 48 48 42 38 33 32 33 29 26 23 19 15 12 9 7
0 0 0 0 0 0 1 1 2 3 2 3 10 24 41 56 65 71 74 76 79 84 83 80 77 71 64 61 57 53 49 41 35 37 44 45 42 39 36 36 35 32 28 25 22 17 13 10 10
0 0 0 0 0 0 0 1 4 6 5 3 6 16 32 48 59 64 71 75 76 77 76 76 75 71 65 59 56 53 49 42 39 40 42 42 39 35 36 39 39 34 29 26 24 21 17 14 13
0 0 0 0 0 0 0 0 4 9 7 4 6 14 27 41 50 59 68 73 72 68 67 69 71 70 65 56 51 48 45 41 40 40 41 41 36 31 34 41 42 37 32 29 27 25 22 17 15
0 0 0 0 0 0 0 0 4 8 7 6 11 19 26 35 46 57 65 70 68 63 61 63 66 67 63 56 48 44 42 38 35 35 38 37 33 29 31 38 42 40 37 34 33 31 25 19 15
0 0 0 0 0 0 0 1 4 7 9 12 19 24 24 30 42 52 60 64 64 62 61 61 63 62 58 53 47 42 39 34 31 32 32 31 28 26 28 34 40 40 36 36 37 36 28 20 17
0 0 0 0 0 0 0 2 6 10 14 18 22 23 21 26 37 46 54 59 59 59 60 60 60 56 50 47 44 41 38 34 31 31 30 26 21 21 25 32 36 34 29 30 36 37 31 25 23
0 0 0 0 0 0 1 4 10 15 17 18 18 17 18 24 32 41 48 51 51 52 54 56 57 53 45 40 40 39 38 35 30 29 26 22 19 18 21 27 30 28 26 27 32 35 33 29 27
0 0 0 0 0 0 1 5 13 18 18 17 15 13 16 23 30 36 40 41 41 41 42 45 49 47 40 36 35 35 34 31 26 22 19 18 18 18 18 20 22 24 26 27 29 32 30 28 26
0 0 0 0 0 0 1 5 11 16 16 15 13 12 14 21 29 34 36 37 36 32 31 34 38 37 34 32 30 30 28 25 21 18 16 16 16 15 15 16 17 18 21 23 24 25 24 23 22
0 0 0 1 1 1 1 5 8 11 12 13 13 11 12 20 29 35 38 38 34 29 25 28 31 30 29 28 28 27 25 23 20 18 17 16 13 11 12 14 15 14 15 18 20 20 18 19 20

GEFSSGP_con_probscp_162.txt.gz
Probability
0 0 0 0 0 0 0 0 0 0 0 0 0 0 0 0 0 0 0 1 3 3 1 1 1 1 1 0 0 0 0 0 0 0 0 0 0 0 0 0 0 0 0 0 0 0 0 0 0
0 0 0 0 0 0 0 0 0 0 0 0 0 0 0 0 0 0 0 1 3 3 2 2 2 2 2 1 0 0 0 0 0 0 0 0 0 0 0 0 0 0 0 0 0 0 0 0 0
0 0 0 0 0 0 0 0 1 1 1 0 0 0 0 0 0 0 1 2 2 2 2 4 4 4 3 1 0 0 0 0 0 0 0 0 0 0 0 0 0 0 0 0 0 0 0 0 0
0 0 0 0 0 0 0 0 2 3 2 1 1 1 0 0 1 2 3 3 3 3 4 6 6 5 3 2 0 0 0 0 0 0 0 0 0 0 0 0 0 0 0 0 0 0 0 0 0
1 1 1 0 0 0 0 1 3 5 4 2 2 2 1 1 2 4 5 5 5 6 7 8 8 7 4 1 0 0 0 0 0 0 0 0 0 0 0 0 0 0 0 0 0 0 0 0 0
2 2 1 0 0 0 0 2 5 5 4 3 3 3 2 2 3 4 5 6 6 8 9 9 9 8 5 2 0 0 0 0 0 0 0 0 0 0 0 0 0 0 0 0 0 0 0 0 0
4 3 1 0 0 0 0 1 4 4 4 3 3 3 3 4 5 5 6 6 7 8 9 9 9 7 5 2 1 0 0 0 0 0 0 0 0 0 0 0 0 0 0 0 0 0 0 0 0
3 2 1 0 0 0 0 0 2 4 4 3 3 3 5 9 10 9 8 9 9 8 9 8 7 6 3 2 1 0 0 0 0 0 0 0 0 0 0 0 0 0 0 0 0 0 0 0 0
2 1 0 0 0 0 0 1 2 4 5 5 5 6 11 18 19 16 13 12 11 10 8 7 6 5 2 1 0 0 0 0 0 0 0 0 0 0 0 0 0 0 0 0 1 1 0 0 0
1 1 0 0 0 0 1 2 3 6 8 9 9 12 20 27 27 23 17 13 12 11 8 6 5 4 2 0 0 0 0 0 0 0 0 0 0 0 0 0 0 0 0 0 1 1 0 0 0
1 1 0 0 0 0 1 1 3 6 9 10 13 18 24 29 31 28 22 15 12 10 7 5 4 3 1 0 0 0 0 0 0 0 0 0 0 0 0 0 0 0 0 0 0 0 0 0 0
0 0 0 0 0 0 0 1 2 5 7 10 13 18 22 26 29 29 25 19 14 9 5 3 2 1 0 0 0 0 0 0 0 0 0 0 0 0 0 0 0 0 0 0 0 0 0 0 0
0 0 0 0 0 0 1 2 3 6 9 10 12 15 19 22 25 27 26 23 19 13 6 2 1 1 1 0 0 0 0 0 0 0 0 0 0 0 0 0 0 0 0 0 0 0 0 0 0
0 0 0 0 0 0 1 3 5 10 13 12 11 13 18 24 25 26 27 27 25 20 13 7 3 2 3 3 2 1 0 0 0 0 0 0 0 0 0 0 0 0 0 0 0 0 0 0 0
0 0 0 0 0 0 2 4 8 15 19 15 12 13 19 26 29 30 31 32 31 28 23 16 8 6 7 8 6 3 2 1 1 0 0 0 0 1 1 0 0 0 0 0 0 0 0 0 0
0 0 0 0 0 0 2 4 10 20 25 21 16 17 21 27 31 33 34 35 35 35 33 26 17 12 11 11 9 6 5 4 3 2 2 2 2 2 2 1 0 0 0 0 0 0 0 0 0
0 0 0 0 0 0 1 4 11 23 29 27 24 24 27 31 34 36 36 36 37 39 38 34 28 22 17 15 11 8 6 6 6 6 6 6 6 5 3 1 1 1 1 0 0 0 0 0 0
0 0 0 0 0 0 1 4 13 26 33 34 33 34 36 37 40 43 43 42 41 41 41 41 40 34 28 23 17 13 11 9 10 10 10 11 10 8 5 3 3 3 3 1 1 1 0 0 0
0 0 0 0 0 1 2 5 12 23 34 38 41 43 44 43 45 50 50 47 46 47 48 48 47 43 37 31 25 22 18 13 11 10 10 12 13 12 9 6 5 4 4 3 2 2 1 0 0
0 0 0 0 0 1 2 4 8 16 25 34 42 47 48 48 50 53 51 47 48 53 54 53 50 47 41 35 31 28 23 15 10 9 8 9 12 14 13 10 6 4 3 2 2 3 2 1 0
0 0 0 0 0 1 2 3 4 9 17 27 39 49 52 54 56 57 54 50 52 55 55 54 53 50 44 39 36 33 26 16 11 8 7 8 12 16 17 13 8 5 3 1 1 2 3 2 1
0 0 0 0 0 0 1 2 2 6 15 26 38 47 53 56 57 59 57 54 53 53 53 52 52 51 47 41 38 35 27 17 10 8 7 8 11 15 17 14 10 6 2 0 0 1 2 2 1
0 0 0 0 0 0 0 0 0 5 14 25 35 43 49 53 54 54 53 49 48 48 49 49 49 50 46 41 37 30 21 13 8 6 7 7 7 8 11 11 9 6 4 2 1 0 1 1 0
0 0 0 0 0 0 0 0 1 5 13 22 31 39 45 49 51 50 46 43 42 42 45 47 47 46 43 37 32 24 15 9 6 6 6 5 4 4 5 5 5 5 5 4 3 1 0 0 0
0 0 0 0 0 0 0 0 2 6 12 19 27 35 40 45 50 49 45 42 42 42 44 46 46 42 37 31 25 19 12 8 5 5 4 4 3 3 2 2 2 3 4 4 3 2 0 0 0
0 0 0 0 0 0 0 1 5 9 12 16 22 29 34 38 44 46 44 44 43 43 45 44 42 37 32 26 21 17 12 8 5 3 3 2 1 1 1 0 1 1 1 1 1 1 0 0 0
0 0 0 0 0 0 0 2 6 10 12 14 19 24 28 30 35 39 41 41 39 39 41 40 35 30 26 22 17 13 11 8 5 3 2 1 1 0 0 0 0 0 0 0 0 0 0 0 0
0 0 0 0 0 0 0 1 5 9 12 14 17 21 24 27 33 36 35 33 30 31 33 33 28 24 20 16 12 8 7 7 5 2 1 0 0 0 0 0 1 1 1 0 0 0 0 0 0
0 0 0 0 0 0 0 0 3 7 11 13 17 20 23 29 33 33 29 27 26 26 27 27 25 21 17 12 8 4 4 4 4 2 1 0 0 0 0 0 1 1 1 1 0 0 0 0 0
0 0 0 0 0 0 0 0 2 7 11 13 17 20 23 28 30 29 26 26 25 25 25 25 25 21 16 11 7 4 3 3 4 3 1 0 0 0 0 0 0 1 1 1 1 1 1 1 0